DAL427 KMCO-LIMC

Flight info

Callsign DAL427
Flight time 9h 5m
Altitude 37000
Route FATHE4 VIYAP Q87 JROSS Q135 RAPZZ PRONI PUNGO PHITZ DWSEN KW54A PREPI KB63C MONTK VITOL NANSO N55B RAFIN 4550N 4740N 4730N 4720N 4715N SEPAL UN470 LAPEX GALOF PECNO VALKU TIS MEBAK GIPNO BALSI GIGUS MEDAM LAPRI MOGBO TOP M135 ASTIG
Aircraft B77L/H-SDE1E2E3FGHIJ2J3J4J5M1RWXY/LB1D1

Departure

Time 2026-04-25 14:26
Airport Orlando International Airport (KMCO)

Arrival

Time 2026-04-25 23:32
Airport Milan Malpensa International Airport (LIMC)
Time Latitude Longitude Altitude Speed Heading
2026-04-25 13:14 28.43539 -81.31552 99 ft 0 kts 87°
2026-04-25 14:02 28.43539 -81.31553 99 ft 2 kts 87°
2026-04-25 14:02 28.43539 -81.31572 100 ft 2 kts 91°
2026-04-25 14:02 28.43540 -81.31585 99 ft 2 kts 95°
2026-04-25 14:03 28.43543 -81.31609 98 ft 2 kts 106°
2026-04-25 14:03 28.43549 -81.31627 99 ft 2 kts 123°
2026-04-25 14:03 28.43560 -81.31641 101 ft 2 kts 152°
2026-04-25 14:03 28.43575 -81.31646 100 ft 2 kts 180°
2026-04-25 14:04 28.43583 -81.31646 103 ft 1 kts 188°
2026-04-25 14:04 28.43584 -81.31646 103 ft 0 kts 188°
2026-04-25 14:07 28.43578 -81.31647 101 ft 4 kts 189°
2026-04-25 14:07 28.43539 -81.31660 101 ft 1 kts 206°
2026-04-25 14:09 28.43538 -81.31661 101 ft 1 kts 207°
2026-04-25 14:09 28.43534 -81.31665 101 ft 2 kts 221°
2026-04-25 14:10 28.43525 -81.31677 105 ft 1 kts 234°
2026-04-25 14:10 28.43518 -81.31689 104 ft 3 kts 241°
2026-04-25 14:10 28.43502 -81.31762 103 ft 13 kts 256°
2026-04-25 14:10 28.43535 -81.31838 105 ft 10 kts 339°
2026-04-25 14:11 28.43654 -81.31846 103 ft 21 kts 359°
2026-04-25 14:11 28.43792 -81.31847 104 ft 18 kts 360°
2026-04-25 14:11 28.43896 -81.31840 104 ft 8 kts 27°
2026-04-25 14:11 28.43922 -81.31755 108 ft 18 kts 89°
2026-04-25 14:12 28.43923 -81.31616 109 ft 17 kts 90°
2026-04-25 14:12 28.43927 -81.31479 107 ft 18 kts 91°
2026-04-25 14:12 28.43929 -81.31341 111 ft 18 kts 86°
2026-04-25 14:12 28.43936 -81.31201 113 ft 18 kts 86°
2026-04-25 14:13 28.43943 -81.31059 111 ft 18 kts 87°
2026-04-25 14:13 28.43941 -81.30918 109 ft 18 kts 91°
2026-04-25 14:13 28.43938 -81.30774 112 ft 21 kts 92°
2026-04-25 14:13 28.43926 -81.30600 110 ft 18 kts 94°
2026-04-25 14:14 28.43917 -81.30461 110 ft 18 kts 94°
2026-04-25 14:14 28.43912 -81.30330 109 ft 18 kts 92°
2026-04-25 14:14 28.43906 -81.30191 106 ft 18 kts 92°
2026-04-25 14:14 28.43898 -81.30045 105 ft 21 kts 96°
2026-04-25 14:15 28.43845 -81.29895 102 ft 19 kts 130°
2026-04-25 14:15 28.43813 -81.29860 101 ft 19 kts 142°
2026-04-25 14:15 28.43658 -81.29809 101 ft 8 kts 178°
2026-04-25 14:15 28.43640 -81.29808 99 ft 0 kts 178°
2026-04-25 14:21 28.43601 -81.29807 101 ft 7 kts 178°
2026-04-25 14:21 28.43562 -81.29781 100 ft 7 kts 123°
2026-04-25 14:21 28.43550 -81.29728 102 ft 7 kts 95°
2026-04-25 14:22 28.43550 -81.29714 102 ft 0 kts 91°
2026-04-25 14:23 28.43550 -81.29713 99 ft 2 kts 90°
2026-04-25 14:23 28.43548 -81.29640 103 ft 11 kts 102°
2026-04-25 14:24 28.43492 -81.29591 102 ft 11 kts 166°
2026-04-25 14:24 28.43449 -81.29587 103 ft 0 kts 179°
2026-04-25 14:25 28.43404 -81.29586 104 ft 24 kts 179°
2026-04-25 14:25 28.43312 -81.29585 104 ft 55 kts 179°
2026-04-25 14:26 28.41798 -81.29569 247 ft 190 kts 178°
2026-04-25 14:26 28.40419 -81.29433 954 ft 209 kts 166°
2026-04-25 14:26 28.39044 -81.28667 1729 ft 236 kts 144°
2026-04-25 14:26 28.37623 -81.27683 2607 ft 245 kts 162°
2026-04-25 14:27 28.35930 -81.27219 3334 ft 256 kts 168°
2026-04-25 14:27 28.34171 -81.26747 4075 ft 264 kts 158°
2026-04-25 14:27 28.32686 -81.25513 4812 ft 269 kts 132°
2026-04-25 14:27 28.31509 -81.23850 5539 ft 274 kts 117°
2026-04-25 14:28 28.31127 -81.21748 6368 ft 277 kts 82°
2026-04-25 14:28 28.31831 -81.19738 7214 ft 279 kts 50°
2026-04-25 14:28 28.33342 -81.18369 8019 ft 281 kts 24°
2026-04-25 14:28 28.35211 -81.17755 8898 ft 281 kts
2026-04-25 14:29 28.37166 -81.17822 9718 ft 283 kts 350°
2026-04-25 14:29 28.39106 -81.18234 10470 ft 289 kts 346°
2026-04-25 14:29 28.41147 -81.18750 10768 ft 314 kts 346°
2026-04-25 14:29 28.43367 -81.19321 10988 ft 340 kts 346°
2026-04-25 14:30 28.45763 -81.19924 11302 ft 362 kts 346°
2026-04-25 14:30 28.50812 -81.21141 12806 ft 377 kts 347°
2026-04-25 14:30 28.53390 -81.21745 13727 ft 379 kts 347°
2026-04-25 14:31 28.55987 -81.22347 14517 ft 383 kts 347°
2026-04-25 14:31 28.58617 -81.22955 15234 ft 389 kts 347°
2026-04-25 14:31 28.61285 -81.23571 15881 ft 393 kts 347°
2026-04-25 14:31 28.63985 -81.24193 15990 ft 399 kts 347°
2026-04-25 14:32 28.66699 -81.24819 15984 ft 396 kts 347°
2026-04-25 14:32 28.69394 -81.25441 15982 ft 395 kts 347°
2026-04-25 14:32 28.72084 -81.26062 15980 ft 394 kts 347°
2026-04-25 14:32 28.74771 -81.26683 15980 ft 394 kts 347°
2026-04-25 14:33 28.77425 -81.27297 15985 ft 394 kts 347°
2026-04-25 14:33 28.80110 -81.27919 15988 ft 394 kts 347°
2026-04-25 14:33 28.82833 -81.28548 15986 ft 394 kts 347°
2026-04-25 14:33 28.85523 -81.29007 16139 ft 400 kts 353°
2026-04-25 14:34 28.88353 -81.29223 16911 ft 404 kts 354°
2026-04-25 14:34 28.91163 -81.29445 17713 ft 406 kts 354°
2026-04-25 14:34 28.93037 -81.29601 18235 ft 409 kts 354°
2026-04-25 14:34 28.95895 -81.29844 18843 ft 414 kts 354°
2026-04-25 14:35 28.98782 -81.30092 19507 ft 417 kts 353°
2026-04-25 14:35 29.01681 -81.30379 20196 ft 419 kts 352°
2026-04-25 14:35 29.03173 -81.30548 20535 ft 421 kts 352°
2026-04-25 14:35 29.06099 -81.30889 21174 ft 424 kts 352°
2026-04-25 14:36 29.10010 -81.31335 21999 ft 429 kts 353°
2026-04-25 14:36 29.12021 -81.31547 22402 ft 432 kts 354°
2026-04-25 14:36 29.15034 -81.31768 23010 ft 436 kts 355°
2026-04-25 14:36 29.18080 -81.31934 23587 ft 440 kts 356°
2026-04-25 14:37 29.21147 -81.32087 24081 ft 443 kts 356°
2026-04-25 14:37 29.24238 -81.32246 24585 ft 446 kts 356°
2026-04-25 14:37 29.27351 -81.32415 25073 ft 449 kts 356°
2026-04-25 14:37 29.30480 -81.32594 25570 ft 452 kts 356°
2026-04-25 14:38 29.33640 -81.32782 26073 ft 456 kts 356°
2026-04-25 14:38 29.36813 -81.32974 26560 ft 459 kts 356°
2026-04-25 14:38 29.40010 -81.33167 27026 ft 462 kts 356°
2026-04-25 14:38 29.43235 -81.33363 27491 ft 465 kts 356°
2026-04-25 14:39 29.46472 -81.33558 27952 ft 468 kts 356°
2026-04-25 14:39 29.49739 -81.33756 28393 ft 471 kts 356°
2026-04-25 14:39 29.53025 -81.33954 28820 ft 474 kts 356°
2026-04-25 14:39 29.56329 -81.34154 29246 ft 477 kts 357°
2026-04-25 14:40 29.59649 -81.34355 29656 ft 479 kts 357°
2026-04-25 14:40 29.62992 -81.34556 30067 ft 481 kts 357°
2026-04-25 14:40 29.66333 -81.34756 30476 ft 481 kts 357°
2026-04-25 14:40 29.69666 -81.34949 30926 ft 479 kts 357°
2026-04-25 14:41 29.72991 -81.35138 31378 ft 478 kts 357°
2026-04-25 14:41 29.76312 -81.35326 31792 ft 477 kts 357°
2026-04-25 14:41 29.79630 -81.35515 32206 ft 477 kts 357°
2026-04-25 14:41 29.82940 -81.35703 32609 ft 477 kts 357°
2026-04-25 14:42 29.86247 -81.35893 33017 ft 476 kts 356°
2026-04-25 14:42 29.88437 -81.36018 33286 ft 475 kts 356°
2026-04-25 14:42 29.92849 -81.36272 33801 ft 474 kts 356°
2026-04-25 14:42 29.96147 -81.36461 34155 ft 474 kts 356°
2026-04-25 14:43 29.99429 -81.36650 34517 ft 472 kts 356°
2026-04-25 14:43 30.02701 -81.36839 34892 ft 470 kts 356°
2026-04-25 14:43 30.09252 -81.37216 34980 ft 471 kts 356°
2026-04-25 14:44 30.15777 -81.37594 34971 ft 468 kts 356°
2026-04-25 14:44 30.22274 -81.37969 34968 ft 467 kts 356°
2026-04-25 14:45 30.28766 -81.38345 34950 ft 467 kts 356°
2026-04-25 14:45 30.35206 -81.38719 34970 ft 466 kts 356°
2026-04-25 14:46 30.41724 -81.39097 34959 ft 466 kts 356°
2026-04-25 14:46 30.48201 -81.39470 34959 ft 466 kts 356°
2026-04-25 14:47 30.53573 -81.39757 35265 ft 461 kts 356°
2026-04-25 14:47 30.57767 -81.39976 36040 ft 449 kts 356°
2026-04-25 14:47 30.60864 -81.40139 36631 ft 441 kts 356°
2026-04-25 14:48 30.63911 -81.40300 37011 ft 438 kts 356°
2026-04-25 14:48 30.66984 -81.40464 36967 ft 444 kts 356°
2026-04-25 14:48 30.73217 -81.40800 36992 ft 453 kts 356°
2026-04-25 14:49 30.79577 -81.41141 36990 ft 461 kts 356°
2026-04-25 14:49 30.86018 -81.41487 36969 ft 465 kts 356°
2026-04-25 14:50 30.92493 -81.41835 36952 ft 466 kts 356°
2026-04-25 14:50 30.98972 -81.42183 36956 ft 466 kts 356°
2026-04-25 14:51 31.05452 -81.42532 36951 ft 465 kts 356°
2026-04-25 14:51 31.11915 -81.42881 36953 ft 464 kts 356°
2026-04-25 14:52 31.18356 -81.43229 36954 ft 463 kts 356°
2026-04-25 14:52 31.23703 -81.43070 36960 ft 464 kts
2026-04-25 14:53 31.30947 -81.40647 36964 ft 467 kts 22°
2026-04-25 14:53 31.36823 -81.37406 36968 ft 467 kts 24°
2026-04-25 14:54 31.42682 -81.34136 36959 ft 467 kts 23°
2026-04-25 14:54 31.48572 -81.30908 36958 ft 467 kts 23°
2026-04-25 14:55 31.54472 -81.27697 36951 ft 468 kts 23°
2026-04-25 14:55 31.60375 -81.24478 36947 ft 468 kts 23°
2026-04-25 14:56 31.66280 -81.21252 36940 ft 468 kts 23°
2026-04-25 14:56 31.72186 -81.18022 36929 ft 468 kts 23°
2026-04-25 14:57 31.78091 -81.14789 36924 ft 468 kts 23°
2026-04-25 14:57 31.83997 -81.11549 36922 ft 468 kts 23°
2026-04-25 14:58 31.89898 -81.08307 36913 ft 468 kts 23°
2026-04-25 14:58 31.95794 -81.05063 36920 ft 468 kts 23°
2026-04-25 14:59 32.01685 -81.01815 36917 ft 468 kts 23°
2026-04-25 14:59 32.07565 -80.98532 36920 ft 467 kts 24°
2026-04-25 15:00 32.13437 -80.95238 36917 ft 467 kts 24°
2026-04-25 15:00 32.19313 -80.91940 36952 ft 467 kts 24°
2026-04-25 15:01 32.25146 -80.88666 36952 ft 467 kts 24°
2026-04-25 15:01 32.31036 -80.85354 36958 ft 467 kts 24°
2026-04-25 15:02 32.36865 -80.82073 36946 ft 468 kts 24°
2026-04-25 15:02 32.42785 -80.78735 36941 ft 468 kts 24°
2026-04-25 15:03 32.48626 -80.75437 36946 ft 468 kts 24°
2026-04-25 15:03 32.54547 -80.72089 36943 ft 469 kts 24°
2026-04-25 15:04 32.60395 -80.68776 36950 ft 469 kts 24°
2026-04-25 15:04 32.66285 -80.65434 36941 ft 469 kts 25°
2026-04-25 15:05 32.71768 -80.61212 36948 ft 473 kts 37°
2026-04-25 15:06 32.78613 -80.52738 36955 ft 476 kts 47°
2026-04-25 15:06 32.82938 -80.46763 36943 ft 477 kts 47°
2026-04-25 15:07 32.87284 -80.40809 36946 ft 477 kts 47°
2026-04-25 15:07 32.91656 -80.34861 36930 ft 478 kts 47°
2026-04-25 15:08 32.96037 -80.28904 36929 ft 478 kts 47°
2026-04-25 15:08 33.00426 -80.22931 36914 ft 480 kts 47°
2026-04-25 15:09 33.04820 -80.16937 36923 ft 481 kts 47°
2026-04-25 15:09 33.11410 -80.07923 36954 ft 480 kts 47°
2026-04-25 15:10 33.15766 -80.01952 36948 ft 480 kts 47°
2026-04-25 15:11 33.22331 -79.92934 36942 ft 479 kts 47°
2026-04-25 15:11 33.26701 -79.86923 36937 ft 479 kts 47°
2026-04-25 15:12 33.33241 -79.77900 36937 ft 478 kts 47°
2026-04-25 15:12 33.36155 -79.73875 36928 ft 478 kts 47°
2026-04-25 15:13 33.44126 -79.62843 36933 ft 479 kts 47°
2026-04-25 15:14 33.48480 -79.56801 36929 ft 480 kts 47°
2026-04-25 15:14 33.52369 -79.51396 36938 ft 480 kts 47°
2026-04-25 15:15 33.56729 -79.45326 36933 ft 481 kts 47°
2026-04-25 15:15 33.61089 -79.39243 36935 ft 481 kts 47°
2026-04-25 15:16 33.65034 -79.33733 36934 ft 481 kts 47°
2026-04-25 15:16 33.71295 -79.24975 36936 ft 482 kts 47°
2026-04-25 15:17 33.77837 -79.15799 36949 ft 482 kts 47°
2026-04-25 15:18 33.82202 -79.09668 36944 ft 483 kts 47°
2026-04-25 15:18 33.88751 -79.00443 36941 ft 483 kts 47°
2026-04-25 15:19 33.91641 -78.96364 36938 ft 483 kts 47°
2026-04-25 15:19 33.96739 -78.89159 36932 ft 484 kts 48°
2026-04-25 15:20 34.01096 -78.82991 36936 ft 483 kts 48°
2026-04-25 15:20 34.05454 -78.76808 36942 ft 483 kts 48°
2026-04-25 15:21 34.09805 -78.70625 36941 ft 484 kts 48°
2026-04-25 15:21 34.14142 -78.64451 36953 ft 484 kts 48°
2026-04-25 15:22 34.18492 -78.58245 36951 ft 484 kts 48°
2026-04-25 15:22 34.22836 -78.52029 36945 ft 484 kts 49°
2026-04-25 15:23 34.26553 -78.45237 36946 ft 487 kts 61°
2026-04-25 15:23 34.29428 -78.37806 36937 ft 488 kts 64°
2026-04-25 15:24 34.32228 -78.30328 36923 ft 488 kts 64°
2026-04-25 15:24 34.34579 -78.24119 36924 ft 489 kts 63°
2026-04-25 15:25 34.37914 -78.15386 36924 ft 489 kts 63°
2026-04-25 15:25 34.40768 -78.07913 36931 ft 489 kts 63°
2026-04-25 15:26 34.43616 -78.00427 36935 ft 490 kts 63°
2026-04-25 15:26 34.46461 -77.92932 36934 ft 490 kts 63°
2026-04-25 15:27 34.49283 -77.85480 36931 ft 490 kts 63°
2026-04-25 15:28 34.53534 -77.74222 36933 ft 489 kts 63°
2026-04-25 15:28 34.56955 -77.67138 36934 ft 485 kts 51°
2026-04-25 15:29 34.61444 -77.61075 36940 ft 482 kts 41°
2026-04-25 15:29 34.66347 -77.55531 36932 ft 482 kts 40°
2026-04-25 15:30 34.71266 -77.49984 36944 ft 483 kts 41°
2026-04-25 15:30 34.76159 -77.44393 36938 ft 483 kts 41°
2026-04-25 15:31 34.81046 -77.38762 36935 ft 484 kts 41°
2026-04-25 15:31 34.85929 -77.33121 36932 ft 484 kts 41°
2026-04-25 15:32 34.90819 -77.27465 36929 ft 485 kts 41°
2026-04-25 15:32 34.95717 -77.21793 36928 ft 486 kts 41°
2026-04-25 15:33 35.03092 -77.13231 36932 ft 486 kts 41°
2026-04-25 15:33 35.07987 -77.07538 36937 ft 486 kts 41°
2026-04-25 15:34 35.12879 -77.01838 36937 ft 486 kts 41°
2026-04-25 15:34 35.16977 -76.97055 36928 ft 486 kts 41°
2026-04-25 15:35 35.25101 -76.87552 36929 ft 486 kts 41°
2026-04-25 15:36 35.32430 -76.78955 36912 ft 487 kts 41°
2026-04-25 15:36 35.37313 -76.73215 36912 ft 487 kts 41°
2026-04-25 15:37 35.42201 -76.67459 36906 ft 487 kts 41°
2026-04-25 15:37 35.47087 -76.61695 36908 ft 488 kts 41°
2026-04-25 15:38 35.51973 -76.55918 36897 ft 488 kts 41°
2026-04-25 15:38 35.56864 -76.50127 36907 ft 488 kts 41°
2026-04-25 15:39 35.61832 -76.44450 36908 ft 486 kts 36°
2026-04-25 15:39 35.67313 -76.39624 36905 ft 484 kts 31°
2026-04-25 15:40 35.70991 -76.36529 36900 ft 484 kts 31°
2026-04-25 15:40 35.78399 -76.30229 36896 ft 485 kts 31°
2026-04-25 15:41 35.83925 -76.25466 36883 ft 485 kts 31°
2026-04-25 15:41 35.89452 -76.20682 36890 ft 485 kts 31°
2026-04-25 15:42 35.94921 -76.15942 36890 ft 486 kts 31°
2026-04-25 15:42 36.00449 -76.11146 36898 ft 486 kts 31°
2026-04-25 15:43 36.05977 -76.06341 36897 ft 486 kts 31°
2026-04-25 15:43 36.11502 -76.01530 36897 ft 486 kts 31°
2026-04-25 15:44 36.17025 -75.96713 36903 ft 486 kts 31°
2026-04-25 15:44 36.22541 -75.91893 36894 ft 486 kts 31°
2026-04-25 15:45 36.28095 -75.87134 36902 ft 483 kts 27°
2026-04-25 15:45 36.31971 -75.84343 36898 ft 481 kts 25°
2026-04-25 15:46 36.39750 -75.78940 36902 ft 482 kts 25°
2026-04-25 15:46 36.45591 -75.74850 36897 ft 482 kts 25°
2026-04-25 15:47 36.51419 -75.70728 36897 ft 482 kts 25°
2026-04-25 15:47 36.57245 -75.66589 36895 ft 482 kts 25°
2026-04-25 15:48 36.63073 -75.62443 36901 ft 482 kts 25°
2026-04-25 15:48 36.68900 -75.58291 36898 ft 483 kts 25°
2026-04-25 15:49 36.74720 -75.54138 36901 ft 483 kts 25°
2026-04-25 15:49 36.80548 -75.49972 36900 ft 483 kts 25°
2026-04-25 15:50 36.86378 -75.45797 36903 ft 483 kts 25°
2026-04-25 15:50 36.92206 -75.41617 36903 ft 483 kts 25°
2026-04-25 15:51 36.95996 -75.38894 36905 ft 483 kts 25°
2026-04-25 15:51 37.03763 -75.33304 36907 ft 484 kts 25°
2026-04-25 15:52 37.09598 -75.29096 36908 ft 484 kts 25°
2026-04-25 15:52 37.15432 -75.24880 36919 ft 484 kts 25°
2026-04-25 15:53 37.21269 -75.20655 36921 ft 484 kts 25°
2026-04-25 15:53 37.27106 -75.16423 36912 ft 485 kts 24°
2026-04-25 15:54 37.32940 -75.12184 36920 ft 485 kts 24°
2026-04-25 15:54 37.38778 -75.07935 36928 ft 485 kts 24°
2026-04-25 15:55 37.44614 -75.03680 36932 ft 485 kts 24°
2026-04-25 15:55 37.50429 -74.99432 36929 ft 485 kts 24°
2026-04-25 15:56 37.56268 -74.95159 36934 ft 485 kts 24°
2026-04-25 15:56 37.62067 -74.90908 36941 ft 485 kts 24°
2026-04-25 15:57 37.67981 -74.86870 36942 ft 482 kts 21°
2026-04-25 15:57 37.73968 -74.83050 36951 ft 482 kts 20°
2026-04-25 15:58 37.79959 -74.79228 36951 ft 482 kts 21°
2026-04-25 15:58 37.85937 -74.75370 36955 ft 482 kts 21°
2026-04-25 15:59 37.91911 -74.71489 36961 ft 482 kts 21°
2026-04-25 15:59 37.97878 -74.67602 36964 ft 482 kts 21°
2026-04-25 16:00 38.01867 -74.65001 36963 ft 482 kts 21°
2026-04-25 16:00 38.09799 -74.59821 36977 ft 481 kts 21°
2026-04-25 16:01 38.15750 -74.55926 36981 ft 481 kts 21°
2026-04-25 16:01 38.21693 -74.52030 36990 ft 481 kts 21°
2026-04-25 16:02 38.27630 -74.48130 36994 ft 480 kts 21°
2026-04-25 16:02 38.33563 -74.44226 36997 ft 480 kts 21°
2026-04-25 16:03 38.39486 -74.40321 36994 ft 479 kts 21°
2026-04-25 16:03 38.45402 -74.36413 37004 ft 478 kts 21°
2026-04-25 16:04 38.50306 -74.33168 37010 ft 478 kts 21°
2026-04-25 16:04 38.56199 -74.29263 37014 ft 477 kts 21°
2026-04-25 16:05 38.62088 -74.25353 37030 ft 476 kts 21°
2026-04-25 16:06 38.70907 -74.19484 37021 ft 476 kts 21°
2026-04-25 16:06 38.76777 -74.15567 37028 ft 476 kts 21°
2026-04-25 16:07 38.82645 -74.11646 37037 ft 476 kts 21°
2026-04-25 16:07 38.88505 -74.07721 37038 ft 475 kts 21°
2026-04-25 16:08 38.94367 -74.03788 37041 ft 475 kts 21°
2026-04-25 16:08 39.00205 -73.99798 37052 ft 477 kts 24°
2026-04-25 16:09 39.05744 -73.94989 37041 ft 482 kts 28°
2026-04-25 16:09 39.11205 -73.89981 37058 ft 482 kts 28°
2026-04-25 16:10 39.16659 -73.85002 37067 ft 481 kts 28°
2026-04-25 16:10 39.22106 -73.80066 37070 ft 481 kts 28°
2026-04-25 16:11 39.27585 -73.75106 37074 ft 481 kts 28°
2026-04-25 16:11 39.33055 -73.70143 37075 ft 481 kts 28°
2026-04-25 16:12 39.38522 -73.65170 37077 ft 480 kts 28°
2026-04-25 16:12 39.43983 -73.60193 37085 ft 480 kts 28°
2026-04-25 16:13 39.49438 -73.55212 37092 ft 480 kts 28°
2026-04-25 16:13 39.54887 -73.50226 37090 ft 480 kts 28°
2026-04-25 16:14 39.60334 -73.45232 37098 ft 479 kts 28°
2026-04-25 16:14 39.65769 -73.40239 37090 ft 479 kts 28°
2026-04-25 16:15 39.71167 -73.35270 37102 ft 478 kts 28°
2026-04-25 16:15 39.76588 -73.30271 37112 ft 478 kts 28°
2026-04-25 16:16 39.81657 -73.24611 37119 ft 488 kts 39°
2026-04-25 16:16 39.85968 -73.17635 37105 ft 496 kts 47°
2026-04-25 16:17 39.89965 -73.10299 37117 ft 497 kts 48°
2026-04-25 16:17 39.93965 -73.02957 37131 ft 499 kts 48°
2026-04-25 16:18 39.98056 -72.95525 37125 ft 504 kts 47°
2026-04-25 16:18 40.02175 -72.88065 37134 ft 509 kts 48°
2026-04-25 16:19 40.06315 -72.80546 37129 ft 512 kts 48°
2026-04-25 16:19 40.10466 -72.72978 37133 ft 512 kts 48°
2026-04-25 16:20 40.16658 -72.61653 37129 ft 509 kts 48°
2026-04-25 16:21 40.22794 -72.50397 37132 ft 505 kts 48°
2026-04-25 16:21 40.26858 -72.42921 37132 ft 503 kts 48°
2026-04-25 16:22 40.30901 -72.35466 37139 ft 501 kts 48°
2026-04-25 16:22 40.34899 -72.28077 37146 ft 500 kts 48°
2026-04-25 16:23 40.38947 -72.20577 37146 ft 500 kts 48°
2026-04-25 16:23 40.42962 -72.13120 37150 ft 500 kts 48°
2026-04-25 16:24 40.46954 -72.05688 37142 ft 501 kts 48°
2026-04-25 16:24 40.50715 -71.97921 37146 ft 509 kts 56°
2026-04-25 16:25 40.53583 -71.89331 37150 ft 515 kts 61°
2026-04-25 16:25 40.56297 -71.80668 37154 ft 516 kts 61°
2026-04-25 16:26 40.59062 -71.71954 37152 ft 516 kts 61°
2026-04-25 16:26 40.61852 -71.63255 37145 ft 517 kts 61°
2026-04-25 16:27 40.64668 -71.54478 37134 ft 517 kts 61°
2026-04-25 16:27 40.67453 -71.45756 37151 ft 516 kts 61°
2026-04-25 16:28 40.70225 -71.37041 37156 ft 516 kts 61°
2026-04-25 16:28 40.72993 -71.28312 37163 ft 516 kts 61°
2026-04-25 16:29 40.75751 -71.19583 37154 ft 515 kts 61°
2026-04-25 16:29 40.78502 -71.10851 37156 ft 515 kts 61°
2026-04-25 16:30 40.81250 -71.02099 37155 ft 517 kts 62°
2026-04-25 16:30 40.83727 -70.93142 37158 ft 522 kts 65°
2026-04-25 16:31 40.86061 -70.84044 37154 ft 524 kts 65°
2026-04-25 16:31 40.88397 -70.74903 37156 ft 526 kts 65°
2026-04-25 16:32 40.90757 -70.65747 37156 ft 527 kts 65°
2026-04-25 16:32 40.93125 -70.56575 37162 ft 528 kts 65°
2026-04-25 16:33 40.95492 -70.47378 37154 ft 528 kts 65°
2026-04-25 16:33 40.97849 -70.38175 37145 ft 528 kts 65°
2026-04-25 16:34 41.00197 -70.28970 37146 ft 527 kts 65°
2026-04-25 16:34 41.02519 -70.19835 37156 ft 527 kts 65°
2026-04-25 16:35 41.04844 -70.10649 37157 ft 526 kts 65°
2026-04-25 16:35 41.07161 -70.01463 37159 ft 525 kts 65°
2026-04-25 16:36 41.09466 -69.92288 37153 ft 524 kts 65°
2026-04-25 16:36 41.11713 -69.83274 37131 ft 506 kts 64°
2026-04-25 16:37 41.13912 -69.74446 37140 ft 502 kts 64°
2026-04-25 16:37 41.16095 -69.65680 37151 ft 499 kts 64°
2026-04-25 16:38 41.18265 -69.56928 37143 ft 499 kts 64°
2026-04-25 16:38 41.20420 -69.48200 37153 ft 499 kts 64°
2026-04-25 16:39 41.22575 -69.39428 37150 ft 500 kts 64°
2026-04-25 16:39 41.24727 -69.30635 37149 ft 501 kts 64°
2026-04-25 16:40 41.26877 -69.21817 37148 ft 502 kts 64°
2026-04-25 16:40 41.29024 -69.12977 37147 ft 503 kts 64°
2026-04-25 16:41 41.31168 -69.04117 37144 ft 504 kts 64°
2026-04-25 16:41 41.34379 -68.90780 37135 ft 505 kts 64°
2026-04-25 16:42 41.36516 -68.81862 37142 ft 506 kts 65°
2026-04-25 16:42 41.38643 -68.72948 37137 ft 506 kts 65°
2026-04-25 16:43 41.40770 -68.64004 37130 ft 506 kts 65°
2026-04-25 16:43 41.42890 -68.55054 37130 ft 507 kts 65°
2026-04-25 16:44 41.45003 -68.46095 37136 ft 507 kts 65°
2026-04-25 16:44 41.47112 -68.37121 37133 ft 507 kts 65°
2026-04-25 16:45 41.49213 -68.28145 37131 ft 507 kts 65°
2026-04-25 16:45 41.51308 -68.19158 37139 ft 507 kts 65°
2026-04-25 16:46 41.53397 -68.10161 37131 ft 508 kts 65°
2026-04-25 16:46 41.54791 -68.04135 37114 ft 508 kts 65°
2026-04-25 16:47 41.57201 -67.93683 37114 ft 508 kts 65°
2026-04-25 16:47 41.59271 -67.84666 37118 ft 508 kts 65°
2026-04-25 16:48 41.61335 -67.75641 37116 ft 508 kts 66°
2026-04-25 16:48 41.63392 -67.66609 37112 ft 508 kts 66°
2026-04-25 16:49 41.65442 -67.57569 37109 ft 508 kts 66°
2026-04-25 16:49 41.67487 -67.48511 37110 ft 509 kts 66°
2026-04-25 16:50 41.69526 -67.39447 37106 ft 509 kts 66°
2026-04-25 16:50 41.71553 -67.30400 37109 ft 510 kts 66°
2026-04-25 16:51 41.73582 -67.21303 37097 ft 510 kts 66°
2026-04-25 16:51 41.75263 -67.13740 37100 ft 510 kts 66°
2026-04-25 16:52 41.77620 -67.03090 37096 ft 511 kts 67°
2026-04-25 16:52 41.79981 -66.94184 37107 ft 504 kts 61°
2026-04-25 16:53 41.84032 -66.81184 37088 ft 504 kts 60°
2026-04-25 16:54 41.86721 -66.72498 37095 ft 505 kts 61°
2026-04-25 16:54 41.89382 -66.63777 37094 ft 505 kts 61°
2026-04-25 16:55 41.92027 -66.55043 37082 ft 505 kts 62°
2026-04-25 16:55 41.94667 -66.46292 37090 ft 505 kts 62°
2026-04-25 16:56 41.97301 -66.37540 37077 ft 505 kts 62°
2026-04-25 16:56 41.99930 -66.28778 37065 ft 505 kts 62°
2026-04-25 16:57 42.02551 -66.20015 37066 ft 505 kts 62°
2026-04-25 16:57 42.05165 -66.11246 37073 ft 505 kts 62°
2026-04-25 16:58 42.07774 -66.02465 37064 ft 505 kts 63°
2026-04-25 16:58 42.10360 -65.93732 37057 ft 505 kts 63°
2026-04-25 16:59 42.12955 -65.84937 37053 ft 506 kts 63°
2026-04-25 16:59 42.15545 -65.76129 37052 ft 506 kts 63°
2026-04-25 17:00 42.18131 -65.67304 37046 ft 506 kts 63°
2026-04-25 17:00 42.20709 -65.58476 37047 ft 506 kts 63°
2026-04-25 17:01 42.23282 -65.49637 37040 ft 506 kts 63°
2026-04-25 17:01 42.25813 -65.40889 37009 ft 489 kts 63°
2026-04-25 17:02 42.28252 -65.32433 37016 ft 481 kts 63°
2026-04-25 17:02 42.30671 -65.24049 37019 ft 477 kts 63°
2026-04-25 17:03 42.33072 -65.15704 37019 ft 476 kts 64°
2026-04-25 17:03 42.35455 -65.07382 37025 ft 475 kts 64°
2026-04-25 17:04 42.37836 -64.99041 37020 ft 476 kts 64°
2026-04-25 17:04 42.40217 -64.90671 37018 ft 478 kts 64°
2026-04-25 17:05 42.42578 -64.82348 37023 ft 487 kts 64°
2026-04-25 17:05 42.45063 -64.73566 37014 ft 499 kts 64°
2026-04-25 17:05 42.46299 -64.69176 36726 ft 496 kts 64°
2026-04-25 17:06 42.47518 -64.64826 36849 ft 493 kts 64°
2026-04-25 17:06 42.48731 -64.60493 36915 ft 491 kts 64°
2026-04-25 17:06 42.51135 -64.51900 36989 ft 491 kts 64°
2026-04-25 17:07 42.53557 -64.43228 36995 ft 493 kts 64°
2026-04-25 17:07 42.55982 -64.34512 36990 ft 494 kts 64°
2026-04-25 17:08 42.58404 -64.25770 36987 ft 496 kts 65°
2026-04-25 17:08 42.60825 -64.17002 36980 ft 496 kts 65°
2026-04-25 17:09 42.63242 -64.08216 36981 ft 497 kts 65°
2026-04-25 17:09 42.65652 -63.99422 36970 ft 497 kts 65°
2026-04-25 17:10 42.68056 -63.90621 36970 ft 496 kts 65°
2026-04-25 17:10 42.70447 -63.81836 36964 ft 495 kts 65°
2026-04-25 17:11 42.72827 -63.73059 36964 ft 494 kts 65°
2026-04-25 17:11 42.75196 -63.64294 36958 ft 493 kts 66°
2026-04-25 17:12 42.77550 -63.55552 36958 ft 492 kts 66°
2026-04-25 17:12 42.79892 -63.46822 36954 ft 490 kts 66°
2026-04-25 17:13 42.81438 -63.41046 36951 ft 490 kts 66°
2026-04-25 17:13 42.84543 -63.29398 36950 ft 488 kts 66°
2026-04-25 17:14 42.86852 -63.20697 36949 ft 488 kts 66°
2026-04-25 17:14 42.89153 -63.12000 36939 ft 487 kts 66°
2026-04-25 17:15 42.91444 -63.03306 36930 ft 487 kts 66°
2026-04-25 17:15 42.93729 -62.94605 36923 ft 487 kts 66°
2026-04-25 17:16 42.95991 -62.85959 36927 ft 487 kts 66°
2026-04-25 17:16 42.98263 -62.77246 36918 ft 487 kts 66°
2026-04-25 17:17 43.00528 -62.68526 36915 ft 487 kts 66°
2026-04-25 17:17 43.02789 -62.59789 36913 ft 488 kts 66°
2026-04-25 17:18 43.05043 -62.51047 36903 ft 488 kts 67°
2026-04-25 17:18 43.07293 -62.42289 36901 ft 488 kts 67°
2026-04-25 17:19 43.09536 -62.33524 36897 ft 488 kts 67°
2026-04-25 17:19 43.11774 -62.24747 36886 ft 489 kts 67°
2026-04-25 17:20 43.14007 -62.15957 36885 ft 489 kts 67°
2026-04-25 17:20 43.16234 -62.07156 36880 ft 489 kts 67°
2026-04-25 17:21 43.18454 -61.98351 36873 ft 489 kts 67°
2026-04-25 17:21 43.20670 -61.89530 36869 ft 489 kts 67°
2026-04-25 17:22 43.22148 -61.83627 36867 ft 489 kts 67°
2026-04-25 17:22 43.25081 -61.71866 36857 ft 490 kts 68°
2026-04-25 17:23 43.27276 -61.63031 36860 ft 490 kts 68°
2026-04-25 17:23 43.29462 -61.54193 36844 ft 490 kts 68°
2026-04-25 17:24 43.31645 -61.45334 36838 ft 490 kts 68°
2026-04-25 17:24 43.33821 -61.36471 36837 ft 490 kts 68°
2026-04-25 17:25 43.35989 -61.27603 36831 ft 490 kts 68°
2026-04-25 17:25 43.38149 -61.18739 36827 ft 490 kts 68°
2026-04-25 17:26 43.40304 -61.09857 36821 ft 490 kts 68°
2026-04-25 17:26 43.42456 -61.00953 36821 ft 491 kts 68°
2026-04-25 17:27 43.44603 -60.92035 36813 ft 491 kts 68°
2026-04-25 17:27 43.46020 -60.86130 36806 ft 491 kts 68°
2026-04-25 17:28 43.48875 -60.74185 36800 ft 491 kts 68°
2026-04-25 17:28 43.50985 -60.65314 36798 ft 491 kts 68°
2026-04-25 17:29 43.53107 -60.56359 36795 ft 492 kts 69°
2026-04-25 17:29 43.55223 -60.47395 36789 ft 492 kts 69°
2026-04-25 17:30 43.57332 -60.38425 36785 ft 492 kts 69°
2026-04-25 17:30 43.59434 -60.29446 36781 ft 492 kts 69°
2026-04-25 17:31 43.61531 -60.20455 36775 ft 492 kts 69°
2026-04-25 17:31 43.63620 -60.11454 36777 ft 492 kts 69°
2026-04-25 17:32 43.65705 -60.02443 36768 ft 493 kts 69°
2026-04-25 17:32 43.67782 -59.93428 36763 ft 493 kts 69°
2026-04-25 17:33 43.69852 -59.84404 36758 ft 493 kts 69°
2026-04-25 17:33 43.71581 -59.76839 36752 ft 493 kts 69°
2026-04-25 17:34 43.73637 -59.67809 36748 ft 493 kts 69°
2026-04-25 17:34 43.75687 -59.58765 36742 ft 493 kts 70°
2026-04-25 17:35 43.77715 -59.49784 36735 ft 493 kts 70°
2026-04-25 17:35 43.79750 -59.40729 36732 ft 493 kts 70°
2026-04-25 17:36 43.81777 -59.31681 36726 ft 492 kts 70°
2026-04-25 17:36 43.83797 -59.22617 36723 ft 492 kts 70°
2026-04-25 17:37 43.85812 -59.13545 36720 ft 492 kts 70°
2026-04-25 17:37 43.87818 -59.04470 36721 ft 495 kts 70°
2026-04-25 17:38 43.89504 -58.96821 36719 ft 502 kts 70°
2026-04-25 17:38 43.91894 -58.85925 36712 ft 508 kts 70°
2026-04-25 17:39 43.93946 -58.76518 36706 ft 510 kts 70°
2026-04-25 17:39 43.95993 -58.67089 36701 ft 511 kts 70°
2026-04-25 17:40 43.98035 -58.57645 36700 ft 510 kts 70°
2026-04-25 17:40 44.00062 -58.48225 36675 ft 507 kts 70°
2026-04-25 17:41 44.02049 -58.38944 36677 ft 498 kts 70°
2026-04-25 17:41 44.04010 -58.29753 36674 ft 494 kts 70°
2026-04-25 17:42 44.05950 -58.20627 36671 ft 491 kts 71°
2026-04-25 17:42 44.07876 -58.11523 36668 ft 490 kts 71°
2026-04-25 17:43 44.09794 -58.02421 36664 ft 490 kts 71°
2026-04-25 17:43 44.11703 -57.93314 36661 ft 491 kts 71°
2026-04-25 17:44 44.13610 -57.84180 36656 ft 492 kts 71°
2026-04-25 17:44 44.15515 -57.75015 36650 ft 493 kts 71°
2026-04-25 17:45 44.17094 -57.67381 36647 ft 494 kts 71°
2026-04-25 17:45 44.19299 -57.56681 36637 ft 495 kts 71°
2026-04-25 17:46 44.21202 -57.47392 36635 ft 495 kts 71°
2026-04-25 17:46 44.23087 -57.38151 36628 ft 496 kts 71°
2026-04-25 17:47 44.24955 -57.28958 36623 ft 496 kts 71°
2026-04-25 17:47 44.26828 -57.19694 36620 ft 496 kts 71°
2026-04-25 17:48 44.29624 -57.05783 36611 ft 497 kts 71°
2026-04-25 17:49 44.31481 -56.96488 36607 ft 497 kts 72°
2026-04-25 17:49 44.33333 -56.87180 36610 ft 498 kts 72°
2026-04-25 17:50 44.35181 -56.77847 36593 ft 498 kts 72°
2026-04-25 17:50 44.37019 -56.68511 36589 ft 499 kts 72°
2026-04-25 17:51 44.38853 -56.59159 36587 ft 499 kts 72°
2026-04-25 17:51 44.40674 -56.49826 36577 ft 499 kts 72°
2026-04-25 17:52 44.42495 -56.40453 36574 ft 499 kts 72°
2026-04-25 17:52 44.44308 -56.31076 36568 ft 499 kts 72°
2026-04-25 17:53 44.46110 -56.21697 36561 ft 499 kts 72°
2026-04-25 17:53 44.47906 -56.12316 36559 ft 499 kts 72°
2026-04-25 17:54 44.49466 -56.02830 36552 ft 501 kts 78°
2026-04-25 17:54 44.50525 -55.93173 36556 ft 502 kts 79°
2026-04-25 17:55 44.51530 -55.83516 36545 ft 501 kts 79°
2026-04-25 17:55 44.52557 -55.73869 36530 ft 501 kts 79°
2026-04-25 17:56 44.53602 -55.64198 36532 ft 501 kts 79°
2026-04-25 17:56 44.54631 -55.54618 36527 ft 501 kts 79°
2026-04-25 17:57 44.55661 -55.44962 36530 ft 501 kts 79°
2026-04-25 17:57 44.56681 -55.35307 36522 ft 501 kts 79°
2026-04-25 17:58 44.57693 -55.25644 36519 ft 501 kts 79°
2026-04-25 17:58 44.58696 -55.15989 36513 ft 501 kts 79°
2026-04-25 17:59 44.59692 -55.06313 36508 ft 501 kts 79°
2026-04-25 17:59 44.60679 -54.96637 36495 ft 501 kts 79°
2026-04-25 18:00 44.61658 -54.86971 36495 ft 500 kts 79°
2026-04-25 18:00 44.62626 -54.77303 36484 ft 499 kts 79°
2026-04-25 18:01 44.63583 -54.67669 36481 ft 496 kts 79°
2026-04-25 18:01 44.64528 -54.58087 36485 ft 497 kts 80°
2026-04-25 18:02 44.65470 -54.48460 36481 ft 497 kts 80°
2026-04-25 18:02 44.66400 -54.38852 36458 ft 495 kts 80°
2026-04-25 18:03 44.67322 -54.29256 36468 ft 500 kts 80°
2026-04-25 18:03 44.68243 -54.19580 36455 ft 498 kts 80°
2026-04-25 18:04 44.69147 -54.09967 36453 ft 498 kts 80°
2026-04-25 18:04 44.70050 -54.00312 36445 ft 497 kts 79°
2026-04-25 18:05 44.70940 -53.90674 36446 ft 498 kts 81°
2026-04-25 18:05 44.71823 -53.81012 36435 ft 498 kts 81°
2026-04-25 18:06 44.72702 -53.71353 36443 ft 499 kts 80°
2026-04-25 18:06 44.73573 -53.61664 36422 ft 500 kts 81°
2026-04-25 18:07 44.74432 -53.51990 36416 ft 496 kts 81°
2026-04-25 18:07 44.75286 -53.42309 36418 ft 500 kts 81°
2026-04-25 18:08 44.76128 -53.32642 36405 ft 496 kts 81°
2026-04-25 18:08 44.76961 -53.23008 36408 ft 500 kts 81°
2026-04-25 18:09 44.77790 -53.13314 36407 ft 499 kts 81°
2026-04-25 18:09 44.78618 -53.03538 36402 ft 500 kts 81°
2026-04-25 18:10 44.79431 -52.93831 36388 ft 499 kts 81°
2026-04-25 18:10 44.80228 -52.84218 36397 ft 502 kts 82°
2026-04-25 18:11 44.81029 -52.74454 36383 ft 503 kts 82°
2026-04-25 18:11 44.81820 -52.64696 36379 ft 500 kts 82°
2026-04-25 18:12 44.82602 -52.54947 36372 ft 501 kts 82°
2026-04-25 18:12 44.83375 -52.45223 36373 ft 501 kts 82°
2026-04-25 18:13 44.84141 -52.35479 36364 ft 501 kts 82°
2026-04-25 18:13 44.84899 -52.25716 36360 ft 502 kts 82°
2026-04-25 18:14 44.86023 -52.11029 36360 ft 503 kts 82°
2026-04-25 18:14 44.86766 -52.01188 36358 ft 506 kts 83°
2026-04-25 18:15 44.87499 -51.91365 36345 ft 502 kts 83°
2026-04-25 18:15 44.88225 -51.81541 36353 ft 506 kts 83°
2026-04-25 18:16 44.88942 -51.71665 36348 ft 511 kts 83°
2026-04-25 18:17 44.90015 -51.56608 36344 ft 518 kts 83°
2026-04-25 18:17 44.90726 -51.46480 36338 ft 520 kts 83°
2026-04-25 18:18 44.91312 -51.38035 36327 ft 521 kts 83°
2026-04-25 18:18 44.92007 -51.27899 36320 ft 517 kts 84°
2026-04-25 18:19 44.92796 -51.16237 36315 ft 511 kts 84°
2026-04-25 18:19 44.93460 -51.06278 36312 ft 508 kts 84°
2026-04-25 18:20 44.94007 -50.97969 36318 ft 507 kts 84°
2026-04-25 18:20 44.94652 -50.88069 36316 ft 508 kts 84°
2026-04-25 18:21 44.95290 -50.78132 36317 ft 509 kts 84°
2026-04-25 18:21 44.95917 -50.68225 36311 ft 511 kts 84°
2026-04-25 18:22 44.96542 -50.58215 36313 ft 513 kts 84°
2026-04-25 18:22 44.97160 -50.48162 36311 ft 515 kts 85°
2026-04-25 18:23 44.97771 -50.38085 36303 ft 516 kts 85°
2026-04-25 18:23 44.98375 -50.27981 36297 ft 517 kts 85°
2026-04-25 18:24 44.98971 -50.17855 36297 ft 518 kts 85°
2026-04-25 18:24 44.99560 -50.07720 36301 ft 518 kts 85°
2026-04-25 18:25 45.00661 -49.97675 36294 ft 518 kts 76°
2026-04-25 18:25 45.02884 -49.88005 36295 ft 517 kts 70°
2026-04-25 18:26 45.05348 -49.78441 36295 ft 518 kts 69°
2026-04-25 18:26 45.07788 -49.68858 36289 ft 518 kts 70°
2026-04-25 18:27 45.10192 -49.59224 36288 ft 519 kts 70°
2026-04-25 18:27 45.12573 -49.49579 36287 ft 519 kts 70°
2026-04-25 18:28 45.14947 -49.39917 36285 ft 519 kts 71°
2026-04-25 18:28 45.17311 -49.30262 36286 ft 520 kts 71°
2026-04-25 18:29 45.20851 -49.15743 36284 ft 519 kts 71°
2026-04-25 18:30 45.25526 -48.96417 36271 ft 511 kts 71°
2026-04-25 18:30 45.27815 -48.86894 36290 ft 512 kts 71°
2026-04-25 18:31 45.30118 -48.77273 36277 ft 515 kts 72°
2026-04-25 18:31 45.32403 -48.67683 36290 ft 512 kts 72°
2026-04-25 18:32 45.34663 -48.58157 36290 ft 514 kts 72°
2026-04-25 18:32 45.36955 -48.48455 36281 ft 512 kts 72°
2026-04-25 18:33 45.39216 -48.38847 36294 ft 513 kts 72°
2026-04-25 18:33 45.41471 -48.29219 36290 ft 517 kts 72°
2026-04-25 18:34 45.43734 -48.19514 36290 ft 511 kts 73°
2026-04-25 18:34 45.45959 -48.09921 36314 ft 518 kts 73°
2026-04-25 18:35 45.48219 -48.00146 36302 ft 519 kts 73°
2026-04-25 18:35 45.50452 -47.90446 36301 ft 510 kts 73°
2026-04-25 18:36 45.52666 -47.80780 36308 ft 517 kts 73°
2026-04-25 18:36 45.54885 -47.71044 36309 ft 513 kts 74°
2026-04-25 18:37 45.57091 -47.61321 36330 ft 518 kts 74°
2026-04-25 18:37 45.59296 -47.51568 36334 ft 516 kts 74°
2026-04-25 18:38 45.61488 -47.41822 36330 ft 516 kts 74°
2026-04-25 18:38 45.63675 -47.32050 36333 ft 516 kts 74°
2026-04-25 18:39 45.65853 -47.22285 36349 ft 515 kts 74°
2026-04-25 18:39 45.68026 -47.12494 36349 ft 517 kts 74°
2026-04-25 18:40 45.70183 -47.02724 36346 ft 515 kts 75°
2026-04-25 18:40 45.72340 -46.92945 36353 ft 515 kts 74°
2026-04-25 18:41 45.74498 -46.83147 36366 ft 518 kts 75°
2026-04-25 18:41 45.76647 -46.73284 36368 ft 518 kts 75°
2026-04-25 18:42 45.78071 -46.66714 36359 ft 515 kts 75°
2026-04-25 18:42 45.80893 -46.53629 36382 ft 519 kts 75°
2026-04-25 18:43 45.83023 -46.43696 36394 ft 526 kts 75°
2026-04-25 18:43 45.85170 -46.33647 36392 ft 528 kts 75°
2026-04-25 18:44 45.86188 -46.23422 36400 ft 515 kts 98°
2026-04-25 18:44 45.85858 -46.13216 36411 ft 518 kts 84°
2026-04-25 18:45 45.87788 -46.03219 36413 ft 522 kts 74°
2026-04-25 18:45 45.90070 -45.93289 36417 ft 524 kts 74°
2026-04-25 18:46 45.92271 -45.83297 36425 ft 525 kts 75°
2026-04-25 18:46 45.94376 -45.73252 36429 ft 526 kts 76°
2026-04-25 18:47 45.95461 -45.67946 36430 ft 526 kts 76°
2026-04-25 18:47 45.97513 -45.57848 36437 ft 526 kts 77°
2026-04-25 18:48 45.99559 -45.47825 36440 ft 526 kts 76°
2026-04-25 18:48 46.01633 -45.37670 36445 ft 525 kts 77°
2026-04-25 18:49 46.03682 -45.27587 36451 ft 525 kts 77°
2026-04-25 18:49 46.05718 -45.17508 36458 ft 524 kts 77°
2026-04-25 18:50 46.07742 -45.07431 36463 ft 524 kts 77°
2026-04-25 18:50 46.09758 -44.97344 36466 ft 524 kts 77°
2026-04-25 18:51 46.11086 -44.90665 36468 ft 524 kts 77°
2026-04-25 18:51 46.13759 -44.77163 36477 ft 523 kts 77°
2026-04-25 18:52 46.15746 -44.67063 36477 ft 523 kts 78°
2026-04-25 18:52 46.17722 -44.56968 36483 ft 523 kts 78°
2026-04-25 18:53 46.19693 -44.46849 36488 ft 523 kts 78°
2026-04-25 18:53 46.21652 -44.36734 36500 ft 523 kts 78°
2026-04-25 18:54 46.24579 -44.21517 36496 ft 524 kts 78°
2026-04-25 18:55 46.26519 -44.11369 36501 ft 524 kts 78°
2026-04-25 18:55 46.28451 -44.01208 36511 ft 524 kts 78°
2026-04-25 18:56 46.30373 -43.91047 36507 ft 524 kts 78°
2026-04-25 18:56 46.32283 -43.80891 36515 ft 524 kts 79°
2026-04-25 18:57 46.34186 -43.70721 36517 ft 523 kts 79°
2026-04-25 18:57 46.36079 -43.60543 36521 ft 523 kts 79°
2026-04-25 18:58 46.37961 -43.50372 36519 ft 523 kts 79°
2026-04-25 18:58 46.40769 -43.35091 36523 ft 523 kts 79°
2026-04-25 18:59 46.44468 -43.14767 36530 ft 524 kts 80°
2026-04-25 19:00 46.47244 -42.99367 36531 ft 524 kts 80°
2026-04-25 19:01 46.49975 -42.84084 36534 ft 525 kts 80°
2026-04-25 19:01 46.51797 -42.73817 36534 ft 525 kts 80°
2026-04-25 19:02 46.54220 -42.60068 36549 ft 526 kts 81°
2026-04-25 19:03 46.56619 -42.46354 36547 ft 526 kts 81°
2026-04-25 19:03 46.58700 -42.34369 36538 ft 526 kts 81°
2026-04-25 19:04 46.61370 -42.18874 36545 ft 527 kts 81°
2026-04-25 19:05 46.64898 -41.98183 36544 ft 527 kts 81°
2026-04-25 19:06 46.66648 -41.87833 36544 ft 527 kts 81°
2026-04-25 19:06 46.69254 -41.72299 36542 ft 527 kts 82°
2026-04-25 19:07 46.71839 -41.56744 36544 ft 527 kts 82°
2026-04-25 19:08 46.74403 -41.41179 36545 ft 527 kts 82°
2026-04-25 19:09 46.77503 -41.22161 36558 ft 526 kts 82°
2026-04-25 19:10 46.80304 -41.04797 36553 ft 527 kts 82°
2026-04-25 19:10 46.81968 -40.94390 36552 ft 527 kts 82°
2026-04-25 19:11 46.83624 -40.83971 36552 ft 526 kts 82°
2026-04-25 19:11 46.85270 -40.73551 36565 ft 526 kts 82°
2026-04-25 19:12 46.86905 -40.63126 36566 ft 526 kts 83°
2026-04-25 19:12 46.88521 -40.52766 36567 ft 526 kts 83°
2026-04-25 19:13 46.90137 -40.42329 36569 ft 526 kts 83°
2026-04-25 19:13 46.91755 -40.31815 36577 ft 527 kts 83°
2026-04-25 19:14 46.93354 -40.21359 36576 ft 527 kts 83°
2026-04-25 19:14 46.94933 -40.10965 36579 ft 527 kts 83°
2026-04-25 19:15 46.96513 -40.00495 36581 ft 527 kts 83°
2026-04-25 19:15 46.97513 -39.89990 36603 ft 517 kts 94°
2026-04-25 19:16 46.97750 -39.79490 36595 ft 516 kts 95°
2026-04-25 19:16 46.97997 -39.68967 36587 ft 518 kts 94°
2026-04-25 19:17 46.98367 -39.58418 36592 ft 520 kts 93°
2026-04-25 19:17 46.98793 -39.47847 36593 ft 520 kts 93°
2026-04-25 19:18 46.99217 -39.37262 36600 ft 520 kts 93°
2026-04-25 19:18 46.99622 -39.26678 36602 ft 521 kts 93°
2026-04-25 19:19 47.00011 -39.16083 36600 ft 521 kts 93°
2026-04-25 19:19 47.00389 -39.05484 36601 ft 521 kts 94°
2026-04-25 19:20 47.00759 -38.94865 36605 ft 522 kts 94°
2026-04-25 19:20 47.01119 -38.84257 36614 ft 522 kts 94°
2026-04-25 19:21 47.01471 -38.73624 36611 ft 522 kts 94°
2026-04-25 19:21 47.01977 -38.57750 36610 ft 523 kts 94°
2026-04-25 19:22 47.02304 -38.47102 36617 ft 523 kts 94°
2026-04-25 19:23 47.02777 -38.31102 36625 ft 524 kts 94°
2026-04-25 19:23 47.03228 -38.15071 36624 ft 525 kts 94°
2026-04-25 19:24 47.03517 -38.04375 36625 ft 526 kts 94°
2026-04-25 19:25 47.04066 -37.82939 36628 ft 526 kts 94°
2026-04-25 19:25 47.04325 -37.72225 36627 ft 526 kts 94°
2026-04-25 19:26 47.04575 -37.61516 36637 ft 525 kts 94°
2026-04-25 19:26 47.04813 -37.50839 36642 ft 524 kts 94°
2026-04-25 19:27 47.05003 -37.41972 36653 ft 523 kts 94°
2026-04-25 19:27 47.05259 -37.29521 36652 ft 522 kts 94°
2026-04-25 19:28 47.05460 -37.19188 36642 ft 522 kts 94°
2026-04-25 19:28 47.05658 -37.08546 36653 ft 521 kts 94°
2026-04-25 19:29 47.05846 -36.97932 36656 ft 521 kts 94°
2026-04-25 19:29 47.06024 -36.87304 36668 ft 521 kts 94°
2026-04-25 19:30 47.06192 -36.76699 36671 ft 520 kts 94°
2026-04-25 19:30 47.06351 -36.66085 36674 ft 520 kts 94°
2026-04-25 19:31 47.06499 -36.55474 36676 ft 520 kts 94°
2026-04-25 19:31 47.06638 -36.44884 36691 ft 520 kts 94°
2026-04-25 19:32 47.06767 -36.34281 36693 ft 519 kts 94°
2026-04-25 19:32 47.06847 -36.27275 36692 ft 519 kts 94°
2026-04-25 19:33 47.06995 -36.13112 36705 ft 519 kts 94°
2026-04-25 19:33 47.07094 -36.02542 36711 ft 518 kts 94°
2026-04-25 19:34 47.07183 -35.92001 36716 ft 518 kts 94°
2026-04-25 19:34 47.07263 -35.81450 36725 ft 517 kts 94°
2026-04-25 19:35 47.07333 -35.70902 36734 ft 517 kts 94°
2026-04-25 19:35 47.07393 -35.60370 36735 ft 517 kts 94°
2026-04-25 19:36 47.07443 -35.49836 36744 ft 516 kts 94°
2026-04-25 19:36 47.07484 -35.39303 36753 ft 516 kts 94°
2026-04-25 19:37 47.07515 -35.28850 36761 ft 516 kts 94°
2026-04-25 19:37 47.07537 -35.18326 36764 ft 516 kts 94°
2026-04-25 19:38 47.07549 -35.07792 36769 ft 517 kts 94°
2026-04-25 19:38 47.07551 -34.97250 36780 ft 517 kts 94°
2026-04-25 19:39 47.07544 -34.86710 36788 ft 517 kts 94°
2026-04-25 19:39 47.07527 -34.76156 36795 ft 517 kts 94°
2026-04-25 19:40 47.07500 -34.65610 36800 ft 517 kts 94°
2026-04-25 19:40 47.07463 -34.55053 36808 ft 518 kts 94°
2026-04-25 19:41 47.07417 -34.44505 36816 ft 518 kts 94°
2026-04-25 19:41 47.07381 -34.37450 36824 ft 518 kts 95°
2026-04-25 19:42 47.07296 -34.23386 36832 ft 518 kts 95°
2026-04-25 19:42 47.07220 -34.12818 36827 ft 518 kts 95°
2026-04-25 19:43 47.07136 -34.02257 36836 ft 518 kts 95°
2026-04-25 19:43 47.07042 -33.91702 36844 ft 518 kts 95°
2026-04-25 19:44 47.06937 -33.81144 36849 ft 517 kts 95°
2026-04-25 19:44 47.06823 -33.70600 36863 ft 517 kts 95°
2026-04-25 19:45 47.06699 -33.60062 36868 ft 517 kts 95°
2026-04-25 19:45 47.06566 -33.49525 36874 ft 517 kts 95°
2026-04-25 19:46 47.06423 -33.38996 36878 ft 517 kts 95°
2026-04-25 19:46 47.06271 -33.28463 36903 ft 517 kts 95°
2026-04-25 19:47 47.06108 -33.17920 36886 ft 517 kts 95°
2026-04-25 19:47 47.05937 -33.07386 36910 ft 517 kts 95°
2026-04-25 19:48 47.05755 -32.96854 36899 ft 516 kts 95°
2026-04-25 19:48 47.05597 -32.88100 36909 ft 516 kts 95°
2026-04-25 19:49 47.05431 -32.79291 36920 ft 516 kts 95°
2026-04-25 19:49 47.05190 -32.67072 36929 ft 516 kts 95°
2026-04-25 19:50 47.04860 -32.51326 36937 ft 515 kts 95°
2026-04-25 19:51 47.04628 -32.40837 36943 ft 514 kts 95°
2026-04-25 19:51 47.04387 -32.30369 36954 ft 514 kts 95°
2026-04-25 19:52 47.04137 -32.19914 36953 ft 513 kts 95°
2026-04-25 19:52 47.03877 -32.09471 36956 ft 512 kts 95°
2026-04-25 19:53 47.03608 -31.99034 36964 ft 512 kts 95°
2026-04-25 19:53 47.03330 -31.88615 36968 ft 512 kts 95°
2026-04-25 19:54 47.03043 -31.78193 36975 ft 511 kts 95°
2026-04-25 19:54 47.02746 -31.67786 36981 ft 511 kts 95°
2026-04-25 19:55 47.02440 -31.57378 36988 ft 511 kts 95°
2026-04-25 19:55 47.02125 -31.46970 36987 ft 511 kts 95°
2026-04-25 19:56 47.01800 -31.36573 36996 ft 511 kts 95°
2026-04-25 19:56 47.01466 -31.26175 36997 ft 511 kts 95°
2026-04-25 19:57 47.01123 -31.15795 37008 ft 510 kts 95°
2026-04-25 19:57 47.00770 -31.05407 37012 ft 510 kts 96°
2026-04-25 19:58 47.00409 -30.95030 37012 ft 510 kts 96°
2026-04-25 19:58 47.00038 -30.84653 37014 ft 510 kts 96°
2026-04-25 19:59 46.99657 -30.74287 37024 ft 510 kts 96°
2026-04-25 19:59 46.99268 -30.63927 37030 ft 509 kts 96°
2026-04-25 20:00 46.98870 -30.53573 37040 ft 509 kts 96°
2026-04-25 20:00 46.98463 -30.43230 37044 ft 509 kts 96°
2026-04-25 20:01 46.97835 -30.27728 37051 ft 508 kts 96°
2026-04-25 20:01 46.97405 -30.17397 37051 ft 508 kts 96°
2026-04-25 20:02 46.96967 -30.07067 37055 ft 508 kts 96°
2026-04-25 20:02 46.96714 -29.96796 37065 ft 510 kts 90°
2026-04-25 20:03 46.97149 -29.86424 37067 ft 511 kts 88°
2026-04-25 20:03 46.97646 -29.76030 37065 ft 511 kts 88°
2026-04-25 20:04 46.98106 -29.65639 37079 ft 511 kts 89°
2026-04-25 20:04 46.98528 -29.55244 37079 ft 512 kts 89°
2026-04-25 20:05 46.98934 -29.44831 37084 ft 512 kts 89°
2026-04-25 20:05 46.99331 -29.34418 37086 ft 512 kts 89°
2026-04-25 20:06 46.99719 -29.24014 37087 ft 512 kts 89°
2026-04-25 20:06 47.00100 -29.13603 37095 ft 512 kts 89°
2026-04-25 20:07 47.00471 -29.03192 37103 ft 512 kts 89°
2026-04-25 20:07 47.00831 -28.92798 37098 ft 512 kts 89°
2026-04-25 20:08 47.01184 -28.82379 37102 ft 512 kts 89°
2026-04-25 20:08 47.01526 -28.71961 37104 ft 512 kts 89°
2026-04-25 20:09 47.01858 -28.61567 37108 ft 512 kts 89°
2026-04-25 20:09 47.02182 -28.51140 37110 ft 511 kts 89°
2026-04-25 20:10 47.02496 -28.40726 37113 ft 511 kts 89°
2026-04-25 20:10 47.02800 -28.30336 37117 ft 511 kts 89°
2026-04-25 20:11 47.03095 -28.19926 37119 ft 511 kts 89°
2026-04-25 20:11 47.03381 -28.09501 37119 ft 512 kts 89°
2026-04-25 20:12 47.03656 -27.99140 37118 ft 512 kts 89°
2026-04-25 20:12 47.03835 -27.92164 37123 ft 512 kts 89°
2026-04-25 20:13 47.04181 -27.78260 37124 ft 513 kts 89°
2026-04-25 20:13 47.04429 -27.67807 37124 ft 513 kts 89°
2026-04-25 20:14 47.04669 -27.57344 37127 ft 514 kts 89°
2026-04-25 20:14 47.04899 -27.46866 37127 ft 514 kts 89°
2026-04-25 20:15 47.05119 -27.36405 37130 ft 514 kts 89°
2026-04-25 20:15 47.05330 -27.25932 37129 ft 514 kts 89°
2026-04-25 20:16 47.05531 -27.15463 37128 ft 513 kts 89°
2026-04-25 20:16 47.05723 -27.05002 37130 ft 513 kts 89°
2026-04-25 20:17 47.05904 -26.94548 37129 ft 513 kts 89°
2026-04-25 20:17 47.06077 -26.84093 37130 ft 512 kts 89°
2026-04-25 20:18 47.06239 -26.73653 37135 ft 512 kts 89°
2026-04-25 20:18 47.06392 -26.63217 37132 ft 512 kts 89°
2026-04-25 20:19 47.06536 -26.52792 37133 ft 512 kts 89°
2026-04-25 20:19 47.06670 -26.42362 37133 ft 511 kts 89°
2026-04-25 20:20 47.06794 -26.31939 37135 ft 511 kts 89°
2026-04-25 20:20 47.06909 -26.21525 37135 ft 511 kts 89°
2026-04-25 20:21 47.07015 -26.11109 37138 ft 510 kts 89°
2026-04-25 20:21 47.07110 -26.00714 37138 ft 509 kts 89°
2026-04-25 20:22 47.07169 -25.93842 37138 ft 509 kts 89°
2026-04-25 20:22 47.07274 -25.79960 37140 ft 508 kts 89°
2026-04-25 20:23 47.07341 -25.69607 37139 ft 507 kts 89°
2026-04-25 20:23 47.07399 -25.59264 37139 ft 507 kts 89°
2026-04-25 20:24 47.07448 -25.48934 37137 ft 506 kts 89°
2026-04-25 20:24 47.07487 -25.38606 37134 ft 506 kts 89°
2026-04-25 20:25 47.07517 -25.28280 37135 ft 506 kts 89°
2026-04-25 20:25 47.07538 -25.18003 37137 ft 506 kts 89°
2026-04-25 20:26 47.07549 -25.07690 37139 ft 506 kts 89°
2026-04-25 20:26 47.07552 -24.97444 37136 ft 506 kts 89°
2026-04-25 20:27 47.07545 -24.87121 37139 ft 506 kts 89°
2026-04-25 20:27 47.07528 -24.76803 37138 ft 506 kts 89°
2026-04-25 20:28 47.07503 -24.66467 37138 ft 506 kts 90°
2026-04-25 20:28 47.07468 -24.56159 37135 ft 507 kts 90°
2026-04-25 20:29 47.07424 -24.45814 37138 ft 507 kts 90°
2026-04-25 20:29 47.07371 -24.35486 37138 ft 507 kts 90°
2026-04-25 20:30 47.07308 -24.25145 37132 ft 508 kts 90°
2026-04-25 20:30 47.07236 -24.14836 37134 ft 508 kts 90°
2026-04-25 20:31 47.07155 -24.04481 37130 ft 508 kts 90°
2026-04-25 20:31 47.07064 -23.94122 37132 ft 508 kts 90°
2026-04-25 20:32 47.06964 -23.83763 37127 ft 508 kts 90°
2026-04-25 20:32 47.06873 -23.75154 37128 ft 508 kts 90°
2026-04-25 20:33 47.06756 -23.64790 37128 ft 508 kts 90°
2026-04-25 20:33 47.06650 -23.56113 37127 ft 508 kts 90°
2026-04-25 20:34 47.06494 -23.44095 37128 ft 508 kts 90°
2026-04-25 20:34 47.06348 -23.33740 37127 ft 508 kts 90°
2026-04-25 20:35 47.06194 -23.23398 37123 ft 508 kts 90°
2026-04-25 20:35 47.06030 -23.13061 37124 ft 507 kts 90°
2026-04-25 20:36 47.05857 -23.02713 37121 ft 508 kts 90°
2026-04-25 20:36 47.05675 -22.92363 37120 ft 508 kts 91°
2026-04-25 20:37 47.05483 -22.82010 37119 ft 508 kts 91°
2026-04-25 20:37 47.05282 -22.71654 37118 ft 508 kts 91°
2026-04-25 20:38 47.05071 -22.61298 37120 ft 508 kts 91°
2026-04-25 20:38 47.04851 -22.50929 37113 ft 509 kts 91°
2026-04-25 20:39 47.04621 -22.40567 37115 ft 509 kts 91°
2026-04-25 20:39 47.04423 -22.31951 37114 ft 509 kts 91°
2026-04-25 20:40 47.04133 -22.19819 37113 ft 509 kts 91°
2026-04-25 20:40 47.03875 -22.09442 37109 ft 509 kts 91°
2026-04-25 20:41 47.03608 -21.99067 37097 ft 509 kts 91°
2026-04-25 20:41 47.03331 -21.88688 37108 ft 509 kts 91°
2026-04-25 20:42 47.03047 -21.78368 37104 ft 509 kts 91°
2026-04-25 20:42 47.02751 -21.67996 37102 ft 509 kts 91°
2026-04-25 20:43 47.02449 -21.57701 37099 ft 509 kts 91°
2026-04-25 20:43 47.02135 -21.47342 37097 ft 509 kts 91°
2026-04-25 20:44 47.01810 -21.36914 37099 ft 509 kts 91°
2026-04-25 20:44 47.01480 -21.26628 37093 ft 509 kts 92°
2026-04-25 20:45 47.01138 -21.16275 37093 ft 509 kts 92°
2026-04-25 20:45 47.00787 -21.05901 37093 ft 509 kts 92°
2026-04-25 20:46 47.00426 -20.95539 37093 ft 510 kts 92°
2026-04-25 20:46 47.00055 -20.85167 37091 ft 510 kts 92°
2026-04-25 20:47 46.99676 -20.74790 37088 ft 510 kts 92°
2026-04-25 20:47 46.99286 -20.64421 37090 ft 510 kts 92°
2026-04-25 20:48 46.98888 -20.54050 37090 ft 510 kts 92°
2026-04-25 20:48 46.98481 -20.43698 37089 ft 510 kts 93°
2026-04-25 20:49 46.98064 -20.33336 37087 ft 510 kts 93°
2026-04-25 20:49 46.97638 -20.22978 37085 ft 509 kts 93°
2026-04-25 20:50 46.97203 -20.12634 37088 ft 509 kts 93°
2026-04-25 20:50 46.96761 -20.02310 37086 ft 508 kts 93°
2026-04-25 20:51 46.96744 -19.91960 37097 ft 507 kts 88°
2026-04-25 20:51 46.96995 -19.81638 37082 ft 507 kts 88°
2026-04-25 20:52 46.97202 -19.73069 37088 ft 507 kts 88°
2026-04-25 20:52 46.97450 -19.61008 37091 ft 507 kts 88°
2026-04-25 20:53 46.97634 -19.50692 37088 ft 506 kts 89°
2026-04-25 20:53 46.97806 -19.40463 37093 ft 506 kts 89°
2026-04-25 20:54 46.97970 -19.30159 37093 ft 506 kts 89°
2026-04-25 20:54 46.98127 -19.19858 37094 ft 506 kts 89°
2026-04-25 20:55 46.98275 -19.09564 37097 ft 505 kts 89°
2026-04-25 20:55 46.98414 -18.99277 37102 ft 505 kts 89°
2026-04-25 20:56 46.98543 -18.88989 37099 ft 505 kts 89°
2026-04-25 20:56 46.98663 -18.78715 37101 ft 505 kts 90°
2026-04-25 20:57 46.98773 -18.68429 37103 ft 505 kts 90°
2026-04-25 20:57 46.98875 -18.58143 37110 ft 505 kts 90°
2026-04-25 20:58 46.98967 -18.47863 37111 ft 505 kts 90°
2026-04-25 20:58 46.99050 -18.37578 37113 ft 505 kts 90°
2026-04-25 20:59 46.99124 -18.27298 37115 ft 505 kts 90°
2026-04-25 20:59 46.99189 -18.17016 37120 ft 505 kts 91°
2026-04-25 21:00 46.99227 -18.10134 37121 ft 505 kts 91°
2026-04-25 21:01 46.99310 -17.91319 37124 ft 505 kts 91°
2026-04-25 21:01 46.99835 -17.81114 37144 ft 503 kts 76°
2026-04-25 21:02 47.01727 -17.71227 37130 ft 505 kts 78°
2026-04-25 21:02 47.02752 -17.61076 37138 ft 504 kts 88°
2026-04-25 21:03 47.02909 -17.50798 37143 ft 505 kts 92°
2026-04-25 21:03 47.02799 -17.40497 37141 ft 506 kts 93°
2026-04-25 21:04 47.02708 -17.30182 37151 ft 506 kts 92°
2026-04-25 21:04 47.02668 -17.19865 37157 ft 507 kts 92°
2026-04-25 21:05 47.02646 -17.11275 37148 ft 507 kts 92°
2026-04-25 21:05 47.02606 -16.99210 37157 ft 506 kts 92°
2026-04-25 21:06 47.02558 -16.88908 37161 ft 505 kts 92°
2026-04-25 21:06 47.02499 -16.78694 37165 ft 504 kts 93°
2026-04-25 21:07 47.02430 -16.68371 37171 ft 503 kts 93°
2026-04-25 21:07 47.02352 -16.58106 37173 ft 503 kts 93°
2026-04-25 21:08 47.02265 -16.47859 37176 ft 503 kts 93°
2026-04-25 21:08 47.02170 -16.37611 37177 ft 503 kts 94°
2026-04-25 21:09 47.02009 -16.22235 37184 ft 503 kts 94°
2026-04-25 21:09 47.01890 -16.11974 37191 ft 504 kts 94°
2026-04-25 21:10 47.01762 -16.01711 37187 ft 504 kts 94°
2026-04-25 21:10 47.01626 -15.91502 37199 ft 504 kts 94°
2026-04-25 21:11 47.01480 -15.81228 37193 ft 505 kts 94°
2026-04-25 21:11 47.01324 -15.70951 37195 ft 505 kts 95°
2026-04-25 21:12 47.01160 -15.60673 37209 ft 505 kts 95°
2026-04-25 21:12 47.01044 -15.53794 37205 ft 505 kts 95°
2026-04-25 21:13 47.00803 -15.40116 37208 ft 504 kts 95°
2026-04-25 21:13 47.00611 -15.29860 37210 ft 504 kts 95°
2026-04-25 21:14 47.00409 -15.19599 37215 ft 503 kts 95°
2026-04-25 21:14 47.00200 -15.09352 37215 ft 503 kts 95°
2026-04-25 21:15 47.00007 -14.99110 37213 ft 504 kts 93°
2026-04-25 21:15 47.00218 -14.88840 37227 ft 505 kts 91°
2026-04-25 21:16 47.00527 -14.78567 37221 ft 505 kts 91°
2026-04-25 21:16 47.00815 -14.68296 37224 ft 505 kts 91°
2026-04-25 21:17 47.01070 -14.58016 37224 ft 505 kts 92°
2026-04-25 21:17 47.01306 -14.47746 37228 ft 504 kts 92°
2026-04-25 21:18 47.01494 -14.39207 37231 ft 504 kts 92°
2026-04-25 21:18 47.01714 -14.28932 37228 ft 504 kts 92°
2026-04-25 21:19 47.01925 -14.18669 37228 ft 504 kts 92°
2026-04-25 21:19 47.02127 -14.08396 37234 ft 504 kts 92°
2026-04-25 21:20 47.02289 -13.99812 37234 ft 503 kts 92°
2026-04-25 21:20 47.02503 -13.87900 37237 ft 503 kts 92°
2026-04-25 21:21 47.02677 -13.77672 37238 ft 502 kts 92°
2026-04-25 21:21 47.02842 -13.67436 37232 ft 502 kts 92°
2026-04-25 21:22 47.02998 -13.57211 37238 ft 501 kts 92°
2026-04-25 21:22 47.03144 -13.46996 37242 ft 501 kts 92°
2026-04-25 21:23 47.03281 -13.36788 37244 ft 501 kts 92°
2026-04-25 21:23 47.03409 -13.26586 37241 ft 501 kts 92°
2026-04-25 21:24 47.03528 -13.16377 37238 ft 501 kts 92°
2026-04-25 21:24 47.03638 -13.06167 37244 ft 501 kts 92°
2026-04-25 21:25 47.03739 -12.95965 37245 ft 501 kts 92°
2026-04-25 21:25 47.03831 -12.85765 37242 ft 501 kts 92°
2026-04-25 21:26 47.03913 -12.75556 37245 ft 501 kts 92°
2026-04-25 21:26 47.03987 -12.65356 37246 ft 501 kts 92°
2026-04-25 21:27 47.04051 -12.55218 37248 ft 500 kts 92°
2026-04-25 21:27 47.04107 -12.45016 37248 ft 500 kts 92°
2026-04-25 21:28 47.04154 -12.34748 37248 ft 500 kts 92°
2026-04-25 21:28 47.04191 -12.24614 37249 ft 500 kts 92°
2026-04-25 21:29 47.04219 -12.14422 37249 ft 500 kts 92°
2026-04-25 21:29 47.04239 -12.04224 37248 ft 500 kts 92°
2026-04-25 21:30 47.04249 -11.94032 37252 ft 500 kts 93°
2026-04-25 21:30 47.04251 -11.85494 37246 ft 500 kts 93°
2026-04-25 21:31 47.04243 -11.73649 37253 ft 500 kts 93°
2026-04-25 21:31 47.04226 -11.63465 37251 ft 500 kts 93°
2026-04-25 21:32 47.04200 -11.53283 37252 ft 500 kts 93°
2026-04-25 21:32 47.04165 -11.43095 37253 ft 500 kts 93°
2026-04-25 21:33 47.04121 -11.32916 37254 ft 500 kts 93°
2026-04-25 21:33 47.04068 -11.22729 37256 ft 500 kts 93°
2026-04-25 21:34 47.04006 -11.12536 37255 ft 500 kts 93°
2026-04-25 21:34 47.03935 -11.02352 37253 ft 500 kts 93°
2026-04-25 21:35 47.03855 -10.92159 37253 ft 500 kts 93°
2026-04-25 21:35 47.03767 -10.82030 37255 ft 500 kts 93°
2026-04-25 21:36 47.03668 -10.71821 37256 ft 501 kts 93°
2026-04-25 21:36 47.03561 -10.61622 37253 ft 501 kts 93°
2026-04-25 21:37 47.03464 -10.53077 37252 ft 501 kts 93°
2026-04-25 21:37 47.03319 -10.41212 37255 ft 501 kts 94°
2026-04-25 21:38 47.03185 -10.31006 37251 ft 501 kts 94°
2026-04-25 21:38 47.03041 -10.20796 37254 ft 501 kts 94°
2026-04-25 21:39 47.02889 -10.10594 37249 ft 501 kts 94°
2026-04-25 21:39 47.02730 -10.00575 37250 ft 501 kts 94°
2026-04-25 21:40 47.02559 -9.90360 37253 ft 501 kts 94°
2026-04-25 21:40 47.02378 -9.80082 37252 ft 501 kts 94°
2026-04-25 21:41 47.02189 -9.69876 37254 ft 501 kts 94°
2026-04-25 21:41 47.01992 -9.59726 37249 ft 502 kts 94°
2026-04-25 21:42 47.01785 -9.49499 37252 ft 502 kts 94°
2026-04-25 21:42 47.01568 -9.39272 37249 ft 502 kts 94°
2026-04-25 21:43 47.01343 -9.29039 37253 ft 502 kts 94°
2026-04-25 21:43 47.01108 -9.18823 37249 ft 502 kts 94°
2026-04-25 21:44 47.00864 -9.08598 37246 ft 502 kts 94°
2026-04-25 21:45 47.00483 -8.93290 37248 ft 501 kts 94°
2026-04-25 21:45 47.00218 -8.83102 37245 ft 500 kts 94°
2026-04-25 21:46 46.99953 -8.72923 37247 ft 500 kts 93°
2026-04-25 21:46 46.99942 -8.62740 37250 ft 500 kts 91°
2026-04-25 21:47 47.00028 -8.52563 37247 ft 500 kts 91°
2026-04-25 21:47 47.00064 -8.42393 37251 ft 499 kts 91°
2026-04-25 21:48 47.00063 -8.32213 37245 ft 500 kts 91°
2026-04-25 21:48 47.00050 -8.22031 37246 ft 500 kts 91°
2026-04-25 21:49 47.00033 -8.11845 37246 ft 501 kts 91°
2026-04-25 21:49 46.99954 -8.01648 37244 ft 500 kts 95°
2026-04-25 21:50 46.98956 -7.91593 37243 ft 498 kts 103°
2026-04-25 21:50 46.97521 -7.81653 37241 ft 499 kts 104°
2026-04-25 21:51 46.96098 -7.71693 37241 ft 501 kts 102°
2026-04-25 21:51 46.95415 -7.61539 37244 ft 502 kts 95°
2026-04-25 21:52 46.94984 -7.51323 37240 ft 503 kts 95°
2026-04-25 21:52 46.94529 -7.41107 37235 ft 503 kts 95°
2026-04-25 21:53 46.94033 -7.30902 37229 ft 503 kts 95°
2026-04-25 21:53 46.93514 -7.20710 37233 ft 502 kts 95°
2026-04-25 21:54 46.92985 -7.10527 37231 ft 501 kts 95°
2026-04-25 21:54 46.92450 -7.00368 37230 ft 501 kts 95°
2026-04-25 21:55 46.91907 -6.90218 37231 ft 500 kts 95°
2026-04-25 21:55 46.91357 -6.80085 37232 ft 499 kts 95°
2026-04-25 21:56 46.90799 -6.69974 37232 ft 499 kts 95°
2026-04-25 21:56 46.90232 -6.59873 37236 ft 498 kts 95°
2026-04-25 21:57 46.89661 -6.49859 37235 ft 498 kts 95°
2026-04-25 21:57 46.89077 -6.39781 37234 ft 497 kts 95°
2026-04-25 21:58 46.88485 -6.29706 37234 ft 497 kts 95°
2026-04-25 21:58 46.87885 -6.19641 37232 ft 497 kts 95°
2026-04-25 21:59 46.87275 -6.09583 37230 ft 497 kts 95°
2026-04-25 21:59 46.86657 -5.99527 37228 ft 497 kts 95°
2026-04-25 22:00 46.85713 -5.84437 37226 ft 497 kts 95°
2026-04-25 22:00 46.85072 -5.74369 37225 ft 498 kts 95°
2026-04-25 22:01 46.84423 -5.64309 37224 ft 498 kts 95°
2026-04-25 22:01 46.83987 -5.57638 37220 ft 498 kts 95°
2026-04-25 22:02 46.83095 -5.44165 37216 ft 498 kts 95°
2026-04-25 22:02 46.82419 -5.34109 37220 ft 499 kts 95°
2026-04-25 22:03 46.81849 -5.25737 37218 ft 499 kts 95°
2026-04-25 22:03 46.81157 -5.15662 37218 ft 498 kts 95°
2026-04-25 22:04 46.80457 -5.05646 37212 ft 498 kts 95°
2026-04-25 22:04 46.79745 -4.95589 37221 ft 498 kts 95°
2026-04-25 22:05 46.79027 -4.85546 37208 ft 498 kts 95°
2026-04-25 22:05 46.78299 -4.75506 37206 ft 497 kts 95°
2026-04-25 22:06 46.77564 -4.65487 37210 ft 496 kts 95°
2026-04-25 22:06 46.76828 -4.55559 37205 ft 495 kts 95°
2026-04-25 22:07 46.76200 -4.47202 37205 ft 494 kts 95°
2026-04-25 22:07 46.75324 -4.35659 37202 ft 493 kts 95°
2026-04-25 22:08 46.74559 -4.25720 37200 ft 492 kts 95°
2026-04-25 22:08 46.73789 -4.15816 37196 ft 491 kts 95°
2026-04-25 22:09 46.73011 -4.05927 37194 ft 491 kts 95°
2026-04-25 22:09 46.72225 -3.96045 37196 ft 491 kts 96°
2026-04-25 22:10 46.71430 -3.86169 37195 ft 491 kts 96°
2026-04-25 22:10 46.70628 -3.76297 37194 ft 491 kts 96°
2026-04-25 22:11 46.69816 -3.66420 37193 ft 491 kts 96°
2026-04-25 22:11 46.69000 -3.56607 37192 ft 491 kts 96°
2026-04-25 22:12 46.68170 -3.46727 37192 ft 492 kts 96°
2026-04-25 22:12 46.67469 -3.38449 37188 ft 492 kts 96°
2026-04-25 22:13 46.66484 -3.26962 37187 ft 492 kts 96°
2026-04-25 22:13 46.65629 -3.17093 37184 ft 492 kts 96°
2026-04-25 22:14 46.64765 -3.07220 37185 ft 492 kts 96°
2026-04-25 22:14 46.63893 -2.97353 37187 ft 492 kts 96°
2026-04-25 22:15 46.63013 -2.87502 37185 ft 491 kts 96°
2026-04-25 22:16 46.61677 -2.72727 37185 ft 491 kts 96°
2026-04-25 22:16 46.60777 -2.62893 37186 ft 491 kts 96°
2026-04-25 22:17 46.59869 -2.53063 37183 ft 491 kts 96°
2026-04-25 22:17 46.58952 -2.43236 37188 ft 491 kts 96°
2026-04-25 22:18 46.58032 -2.33470 37186 ft 491 kts 96°
2026-04-25 22:18 46.57103 -2.23585 37184 ft 491 kts 97°
2026-04-25 22:19 46.56168 -2.13757 37189 ft 491 kts 97°
2026-04-25 22:19 46.55225 -2.03995 37184 ft 491 kts 97°
2026-04-25 22:20 46.54258 -1.94105 37186 ft 491 kts 97°
2026-04-25 22:20 46.53289 -1.84283 37187 ft 491 kts 97°
2026-04-25 22:21 46.52318 -1.74535 37190 ft 491 kts 97°
2026-04-25 22:21 46.51332 -1.64713 37190 ft 491 kts 97°
2026-04-25 22:22 46.50337 -1.54899 37196 ft 491 kts 97°
2026-04-25 22:22 46.49334 -1.45088 37196 ft 491 kts 98°
2026-04-25 22:23 46.48323 -1.35283 37198 ft 491 kts 98°
2026-04-25 22:23 46.47304 -1.25476 37191 ft 491 kts 98°
2026-04-25 22:24 46.46277 -1.15685 37189 ft 491 kts 98°
2026-04-25 22:24 46.45240 -1.05885 37178 ft 492 kts 98°
2026-04-25 22:25 46.44194 -0.96084 37178 ft 492 kts 98°
2026-04-25 22:25 46.43140 -0.86288 37176 ft 492 kts 98°
2026-04-25 22:26 46.42077 -0.76484 37173 ft 492 kts 98°
2026-04-25 22:26 46.41005 -0.66681 37177 ft 493 kts 99°
2026-04-25 22:27 46.39924 -0.56885 37174 ft 493 kts 99°
2026-04-25 22:27 46.38834 -0.47078 37167 ft 493 kts 99°
2026-04-25 22:28 46.37737 -0.37283 37171 ft 493 kts 99°
2026-04-25 22:28 46.36630 -0.27484 37167 ft 493 kts 99°
2026-04-25 22:29 46.35522 -0.17759 37172 ft 493 kts 99°
2026-04-25 22:29 46.34398 -0.07961 37166 ft 493 kts 99°
2026-04-25 22:30 46.32697 0.06711 37173 ft 493 kts 99°
2026-04-25 22:30 46.31747 0.14837 37171 ft 492 kts 99°
2026-04-25 22:31 46.30403 0.26248 37169 ft 492 kts 99°
2026-04-25 22:31 46.29244 0.35996 37168 ft 492 kts 99°
2026-04-25 22:32 46.28077 0.45748 37167 ft 492 kts 99°
2026-04-25 22:32 46.26901 0.55495 37166 ft 492 kts 100°
2026-04-25 22:33 46.25716 0.65246 37164 ft 493 kts 100°
2026-04-25 22:33 46.24525 0.74980 37171 ft 493 kts 100°
2026-04-25 22:34 46.23330 0.84669 37166 ft 493 kts 100°
2026-04-25 22:34 46.22111 0.94480 37167 ft 494 kts 100°
2026-04-25 22:35 46.20898 1.04175 37168 ft 494 kts 100°
2026-04-25 22:35 46.19670 1.13919 37174 ft 494 kts 101°
2026-04-25 22:36 46.18431 1.23682 37172 ft 494 kts 101°
2026-04-25 22:36 46.17184 1.33435 37176 ft 494 kts 101°
2026-04-25 22:37 46.15928 1.43187 37176 ft 495 kts 101°
2026-04-25 22:37 46.14664 1.52936 37176 ft 495 kts 101°
2026-04-25 22:38 46.13391 1.62682 37169 ft 495 kts 101°
2026-04-25 22:38 46.12111 1.72422 37172 ft 495 kts 101°
2026-04-25 22:39 46.10822 1.82158 37168 ft 494 kts 101°
2026-04-25 22:39 46.09525 1.91889 37172 ft 494 kts 101°
2026-04-25 22:40 46.08220 2.01611 37164 ft 494 kts 101°
2026-04-25 22:40 46.06907 2.11321 37171 ft 494 kts 101°
2026-04-25 22:41 46.05585 2.21039 37159 ft 494 kts 101°
2026-04-25 22:41 46.04249 2.30747 37165 ft 494 kts 102°
2026-04-25 22:42 46.02903 2.40442 37163 ft 495 kts 102°
2026-04-25 22:42 46.01558 2.50079 37164 ft 495 kts 102°
2026-04-25 22:43 46.00196 2.59780 37164 ft 495 kts 102°
2026-04-25 22:43 45.98817 2.69545 37160 ft 495 kts 102°
2026-04-25 22:44 45.97437 2.79250 37162 ft 495 kts 102°
2026-04-25 22:44 45.96059 2.88877 37156 ft 495 kts 102°
2026-04-25 22:45 45.94666 2.98547 37159 ft 495 kts 102°
2026-04-25 22:45 45.93263 3.08227 37155 ft 495 kts 102°
2026-04-25 22:46 45.91850 3.17913 37152 ft 495 kts 102°
2026-04-25 22:46 45.90430 3.27590 37156 ft 495 kts 102°
2026-04-25 22:47 45.89002 3.37256 37153 ft 495 kts 102°
2026-04-25 22:47 45.87566 3.46921 37159 ft 495 kts 102°
2026-04-25 22:48 45.86122 3.56579 37155 ft 495 kts 102°
2026-04-25 22:48 45.84671 3.66221 37120 ft 493 kts 102°
2026-04-25 22:49 45.83946 3.71017 36857 ft 490 kts 103°
2026-04-25 22:49 45.83227 3.75762 36714 ft 484 kts 103°
2026-04-25 22:49 45.81796 3.85158 36573 ft 483 kts 103°
2026-04-25 22:50 45.80355 3.94566 36421 ft 484 kts 103°
2026-04-25 22:50 45.78905 4.03973 36262 ft 484 kts 103°
2026-04-25 22:51 45.77445 4.13393 36110 ft 484 kts 103°
2026-04-25 22:51 45.75980 4.22792 35953 ft 483 kts 103°
2026-04-25 22:52 45.74510 4.32170 35805 ft 482 kts 103°
2026-04-25 22:52 45.73285 4.39942 35674 ft 481 kts 103°
2026-04-25 22:53 45.71807 4.49269 35517 ft 480 kts 103°
2026-04-25 22:53 45.70327 4.58560 35354 ft 478 kts 103°
2026-04-25 22:54 45.68845 4.67810 35190 ft 477 kts 103°
2026-04-25 22:54 45.68096 4.72465 34781 ft 486 kts 103°
2026-04-25 22:54 45.67535 4.75945 34672 ft 490 kts 103°
2026-04-25 22:55 45.66474 4.82505 34626 ft 496 kts 103°
2026-04-25 22:55 45.64921 4.92057 34533 ft 495 kts 103°
2026-04-25 22:56 45.63357 5.01629 34426 ft 490 kts 103°
2026-04-25 22:56 45.62605 5.06213 34276 ft 485 kts 103°
2026-04-25 22:56 45.61836 5.10885 34126 ft 481 kts 103°
2026-04-25 22:57 45.61068 5.15534 33963 ft 480 kts 103°
2026-04-25 22:57 45.60303 5.20161 33802 ft 478 kts 103°
2026-04-25 22:57 45.59538 5.24771 33637 ft 477 kts 103°
2026-04-25 22:57 45.58773 5.29364 33503 ft 475 kts 104°
2026-04-25 22:58 45.57250 5.38481 33394 ft 470 kts 104°
2026-04-25 22:58 45.55729 5.47542 33259 ft 472 kts 104°
2026-04-25 22:59 45.54182 5.56697 33148 ft 475 kts 104°
2026-04-25 22:59 45.52636 5.65812 33130 ft 471 kts 104°
2026-04-25 23:00 45.51091 5.74867 33127 ft 469 kts 104°
2026-04-25 23:00 45.49545 5.83884 33127 ft 469 kts 104°
2026-04-25 23:01 45.48759 5.88449 33138 ft 480 kts 104°
2026-04-25 23:01 45.47954 5.93109 33139 ft 488 kts 104°
2026-04-25 23:01 45.46333 6.02462 33131 ft 490 kts 104°
2026-04-25 23:02 45.44695 6.11870 33132 ft 489 kts 105°
2026-04-25 23:02 45.43053 6.21250 33139 ft 488 kts 105°
2026-04-25 23:03 45.41407 6.30604 33138 ft 486 kts 105°
2026-04-25 23:03 45.39759 6.39926 33145 ft 485 kts 105°
2026-04-25 23:04 45.37848 6.49096 33143 ft 482 kts 111°
2026-04-25 23:04 45.35542 6.58099 33151 ft 491 kts 111°
2026-04-25 23:05 45.33185 6.67290 33147 ft 493 kts 111°
2026-04-25 23:05 45.30882 6.76388 32893 ft 487 kts 111°
2026-04-25 23:06 45.29737 6.80911 32604 ft 487 kts 111°
2026-04-25 23:06 45.28586 6.85436 32280 ft 488 kts 111°
2026-04-25 23:06 45.27252 6.89852 31829 ft 488 kts 121°
2026-04-25 23:06 45.25395 6.93852 31267 ft 486 kts 123°
2026-04-25 23:07 45.23827 6.98146 30650 ft 494 kts 112°
2026-04-25 23:07 45.22835 7.02799 30417 ft 491 kts 105°
2026-04-25 23:07 45.21955 7.07465 30142 ft 489 kts 106°
2026-04-25 23:07 45.21019 7.12092 29788 ft 488 kts 107°
2026-04-25 23:08 45.20034 7.16703 29481 ft 487 kts 108°
2026-04-25 23:08 45.19024 7.21263 29241 ft 483 kts 108°
2026-04-25 23:08 45.18002 7.25794 28994 ft 481 kts 108°
2026-04-25 23:08 45.16980 7.30292 28737 ft 479 kts 108°
2026-04-25 23:09 45.15973 7.34718 28483 ft 477 kts 108°
2026-04-25 23:09 45.14958 7.39181 28254 ft 475 kts 108°
2026-04-25 23:09 45.13954 7.43596 28018 ft 472 kts 108°
2026-04-25 23:09 45.12953 7.48003 27595 ft 466 kts 108°
2026-04-25 23:10 45.11960 7.52368 26946 ft 457 kts 108°
2026-04-25 23:10 45.11008 7.56545 26438 ft 448 kts 108°
2026-04-25 23:10 45.10043 7.60769 25932 ft 440 kts 108°
2026-04-25 23:10 45.09107 7.64859 25432 ft 434 kts 108°
2026-04-25 23:11 45.08194 7.68839 24974 ft 429 kts 108°
2026-04-25 23:11 45.07265 7.72883 24486 ft 424 kts 108°
2026-04-25 23:11 45.06370 7.76771 24030 ft 418 kts 108°
2026-04-25 23:11 45.05475 7.80653 23565 ft 413 kts 108°
2026-04-25 23:12 45.04590 7.84485 23018 ft 403 kts 108°
2026-04-25 23:12 45.03746 7.88133 22428 ft 378 kts 108°
2026-04-25 23:12 45.02952 7.91559 21876 ft 357 kts 108°
2026-04-25 23:12 45.02196 7.94817 21349 ft 342 kts 108°
2026-04-25 23:13 45.01453 7.98016 20872 ft 346 kts 108°
2026-04-25 23:13 45.00696 8.01270 20408 ft 349 kts 108°
2026-04-25 23:13 45.00001 8.04547 19911 ft 348 kts 101°
2026-04-25 23:13 44.99817 8.07888 19413 ft 336 kts 85°
2026-04-25 23:14 45.00167 8.11090 18936 ft 325 kts 76°
2026-04-25 23:14 45.00721 8.14161 18469 ft 321 kts 75°
2026-04-25 23:14 45.01288 8.17257 17993 ft 330 kts 75°
2026-04-25 23:14 45.01864 8.20417 17475 ft 334 kts 75°
2026-04-25 23:15 45.02439 8.23598 16973 ft 334 kts 75°
2026-04-25 23:15 45.03007 8.26761 16446 ft 327 kts 75°
2026-04-25 23:15 45.03552 8.29820 15930 ft 315 kts 75°
2026-04-25 23:15 45.04074 8.32759 15413 ft 302 kts 76°
2026-04-25 23:16 45.04572 8.35577 14910 ft 288 kts 76°
2026-04-25 23:16 45.05049 8.38277 14417 ft 279 kts 76°
2026-04-25 23:16 45.05513 8.40895 13943 ft 271 kts 74°
2026-04-25 23:16 45.06386 8.43220 13409 ft 272 kts 43°
2026-04-25 23:17 45.07985 8.44545 12909 ft 265 kts 22°
2026-04-25 23:17 45.09671 8.45547 12410 ft 261 kts 24°
2026-04-25 23:17 45.11322 8.46572 11895 ft 257 kts 24°
2026-04-25 23:17 45.12948 8.47596 11410 ft 257 kts 24°
2026-04-25 23:18 45.14593 8.48642 10933 ft 261 kts 24°
2026-04-25 23:18 45.16256 8.49708 10466 ft 264 kts 24°
2026-04-25 23:18 45.17911 8.50773 9982 ft 257 kts 24°
2026-04-25 23:18 45.19507 8.51802 9437 ft 246 kts 24°
2026-04-25 23:19 45.21063 8.52707 8900 ft 240 kts 11°
2026-04-25 23:19 45.22715 8.52644 8392 ft 242 kts 348°
2026-04-25 23:19 45.24402 8.52155 7949 ft 251 kts 349°
2026-04-25 23:19 45.26098 8.51686 7435 ft 245 kts 349°
2026-04-25 23:20 45.27751 8.51229 6945 ft 240 kts 349°
2026-04-25 23:20 45.28284 8.51081 6792 ft 239 kts 349°
2026-04-25 23:20 45.29005 8.50881 6579 ft 237 kts 349°
2026-04-25 23:20 45.30640 8.50567 6059 ft 236 kts
2026-04-25 23:21 45.32160 8.51346 5547 ft 235 kts 38°
2026-04-25 23:21 45.33157 8.53094 5177 ft 231 kts 64°
2026-04-25 23:21 45.33626 8.55243 5030 ft 234 kts 77°
2026-04-25 23:21 45.33935 8.57524 4934 ft 238 kts 79°
2026-04-25 23:22 45.34242 8.59885 4664 ft 241 kts 79°
2026-04-25 23:22 45.34531 8.62217 4375 ft 238 kts 85°
2026-04-25 23:22 45.34265 8.64452 4100 ft 233 kts 117°
2026-04-25 23:23 45.31719 8.67065 3856 ft 236 kts 166°
2026-04-25 23:23 45.30102 8.67612 3792 ft 236 kts 158°
2026-04-25 23:23 45.28790 8.68956 3559 ft 240 kts 127°
2026-04-25 23:23 45.28147 8.71086 3237 ft 236 kts 95°
2026-04-25 23:24 45.28309 8.73372 3016 ft 235 kts 76°
2026-04-25 23:24 45.28769 8.75597 2986 ft 230 kts 65°
2026-04-25 23:24 45.29714 8.77235 2956 ft 204 kts 30°
2026-04-25 23:24 45.30997 8.77933 3012 ft 198 kts 15°
2026-04-25 23:25 45.32318 8.78414 2984 ft 194 kts 14°
2026-04-25 23:25 45.33608 8.78863 3033 ft 189 kts 14°
2026-04-25 23:25 45.34886 8.79304 3054 ft 190 kts 13°
2026-04-25 23:25 45.36182 8.79747 3010 ft 193 kts 13°
2026-04-25 23:26 45.37494 8.80096 2989 ft 192 kts
2026-04-25 23:26 45.38810 8.79911 3004 ft 190 kts 352°
2026-04-25 23:26 45.40121 8.79620 2995 ft 191 kts 350°
2026-04-25 23:26 45.41438 8.79283 3006 ft 192 kts 349°
2026-04-25 23:27 45.42748 8.78931 2995 ft 191 kts 348°
2026-04-25 23:27 45.44052 8.78574 3020 ft 192 kts 348°
2026-04-25 23:27 45.45352 8.78217 3014 ft 184 kts 348°
2026-04-25 23:27 45.46555 8.77886 2990 ft 170 kts 348°
2026-04-25 23:28 45.47698 8.77572 3014 ft 167 kts 348°
2026-04-25 23:28 45.48842 8.77257 3030 ft 169 kts 348°
2026-04-25 23:28 45.49998 8.76940 3033 ft 170 kts 348°
2026-04-25 23:28 45.51176 8.76615 2807 ft 173 kts 348°
2026-04-25 23:29 45.52317 8.76302 2568 ft 160 kts 348°
2026-04-25 23:29 45.53379 8.76009 2399 ft 153 kts 348°
2026-04-25 23:29 45.54410 8.75725 2187 ft 150 kts 347°
2026-04-25 23:29 45.55440 8.75441 2000 ft 151 kts 347°
2026-04-25 23:30 45.56449 8.75162 1772 ft 151 kts 347°
2026-04-25 23:30 45.57467 8.74881 1559 ft 148 kts 348°
2026-04-25 23:30 45.58468 8.74605 1359 ft 146 kts 348°
2026-04-25 23:30 45.59456 8.74329 1134 ft 144 kts 348°
2026-04-25 23:31 45.60424 8.74063 952 ft 142 kts 348°
2026-04-25 23:31 45.61397 8.73793 807 ft 142 kts 349°
2026-04-25 23:31 45.62315 8.73538 744 ft 130 kts 352°
2026-04-25 23:31 45.63109 8.73325 740 ft 92 kts 349°
2026-04-25 23:32 45.63568 8.73188 742 ft 47 kts 341°
2026-04-25 23:32 45.63789 8.72965 740 ft 24 kts 309°
2026-04-25 23:32 45.63848 8.72845 740 ft 5 kts 305°
2026-04-25 23:32 45.63855 8.72831 741 ft 1 kts 305°
2026-04-25 23:33 45.63864 8.72813 741 ft 3 kts 305°
2026-04-25 23:33 45.63879 8.72781 738 ft 5 kts 305°
2026-04-25 23:33 45.63905 8.72726 740 ft 9 kts 303°
2026-04-25 23:33 45.63946 8.72627 740 ft 13 kts 293°
2026-04-25 23:34 45.63949 8.72517 739 ft 11 kts 262°
2026-04-25 23:34 45.63937 8.72420 738 ft 10 kts 259°
2026-04-25 23:34 45.63923 8.72318 741 ft 11 kts 259°
2026-04-25 23:34 45.63916 8.72242 740 ft 10 kts 268°
2026-04-25 23:35 45.63915 8.72147 740 ft 12 kts 268°
2026-04-25 23:35 45.63903 8.71959 740 ft 15 kts 260°
2026-04-25 23:35 45.63848 8.71839 738 ft 16 kts 204°
2026-04-25 23:35 45.63695 8.71854 740 ft 21 kts 167°
2026-04-25 23:36 45.63580 8.71886 741 ft 16 kts 169°
2026-04-25 23:36 45.63500 8.71907 740 ft 19 kts 169°
2026-04-25 23:36 45.63352 8.71945 740 ft 10 kts 175°
2026-04-25 23:36 45.63304 8.71885 741 ft 11 kts 261°
2026-04-25 23:37 45.63284 8.71730 739 ft 14 kts 259°
2026-04-25 23:37 45.63272 8.71640 740 ft 13 kts 259°
2026-04-25 23:37 45.63258 8.71535 738 ft 6 kts 257°
2026-04-25 23:37 45.63217 8.71480 741 ft 6 kts 203°
2026-04-25 23:38 45.63194 8.71467 741 ft 5 kts 200°
2026-04-25 23:38 45.63172 8.71456 738 ft 2 kts 200°
2026-04-25 23:38 45.63172 8.71455 738 ft 0 kts 200°